Observation data for Stinnett on 08/20/2019      Previous  Date       Current Mesonet Observations  Soil Data  Daily Summary Page  Observations in Plain Language
KST3 200500Z 19007KT 28/14 A3006 RMK A01 T02790137  RH  042%=      5-min Rain = 0
KST3 200501Z 18008KT 28/14 A3006 RMK A01 T02790137  RH  042%=      5-min Rain = 0
KST3 200502Z 19008KT 28/14 A3006 RMK A01 T02790137  RH  042%=      5-min Rain = 0
KST3 200503Z 19009KT 28/14 A3006 RMK A01 T02790137  RH  042%=      5-min Rain = 0
KST3 200504Z 18008KT 28/14 A3006 RMK A01 T02790136  RH  041%=      5-min Rain = 0
KST3 200505Z 18008KT 28/14 A3006 RMK A01 T02800136  RH  041%=      5-min Rain = 0
KST3 200506Z 19007KT 28/14 A3006 RMK A01 T02800136  RH  041%=      5-min Rain = 0
KST3 200507Z 19008KT 28/14 A3006 RMK A01 T02810136  RH  041%=      5-min Rain = 0
KST3 200508Z 18007KT 28/14 A3006 RMK A01 T02810136  RH  041%=      5-min Rain = 0
KST3 200509Z 19008KT 28/14 A3006 RMK A01 T02800136  RH  041%=      5-min Rain = 0
KST3 200510Z 18008KT 28/14 A3006 RMK A01 T02800136  RH  041%=      5-min Rain = 0
KST3 200511Z 18008KT 28/14 A3006 RMK A01 T02800135  RH  041%=      5-min Rain = 0
KST3 200512Z 18010KT 28/14 A3006 RMK A01 T02810135  RH  041%=      5-min Rain = 0
KST3 200513Z 18009KT 28/14 A3006 RMK A01 T02820135  RH  040%=      5-min Rain = 0
KST3 200514Z 18008KT 28/14 A3006 RMK A01 T02830135  RH  040%=      5-min Rain = 0
KST3 200515Z 18009KT 28/14 A3006 RMK A01 T02830136  RH  040%=      5-min Rain = 0
KST3 200516Z 18009KT 28/14 A3006 RMK A01 T02830135  RH  040%=      5-min Rain = 0
KST3 200517Z 18010KT 28/14 A3006 RMK A01 T02830135  RH  040%=      5-min Rain = 0
KST3 200518Z 18009KT 28/14 A3006 RMK A01 T02830135  RH  040%=      5-min Rain = 0
KST3 200519Z 18009KT 28/14 A3006 RMK A01 T02830135  RH  040%=      5-min Rain = 0
KST3 200520Z 17009KT 28/14 A3006 RMK A01 T02830135  RH  040%=      5-min Rain = 0
KST3 200521Z 18011KT 28/14 A3006 RMK A01 T02830135  RH  040%=      5-min Rain = 0
KST3 200522Z 17012KT 28/14 A3006 RMK A01 T02840135  RH  040%=      5-min Rain = 0
KST3 200523Z 18011KT 29/14 A3006 RMK A01 T02850136  RH  040%=      5-min Rain = 0
KST3 200524Z 17012KT 29/14 A3006 RMK A01 T02850136  RH  040%=      5-min Rain = 0
KST3 200525Z 18012KT 29/14 A3006 RMK A01 T02850137  RH  040%=      5-min Rain = 0
KST3 200526Z 17012KT 29/14 A3006 RMK A01 T02850137  RH  040%=      5-min Rain = 0
KST3 200527Z 17011KT 29/14 A3006 RMK A01 T02850138  RH  040%=      5-min Rain = 0
KST3 200528Z 17012KT 29/14 A3006 RMK A01 T02850138  RH  040%=      5-min Rain = 0
KST3 200529Z 18010KT 29/14 A3006 RMK A01 T02850138  RH  041%=      5-min Rain = 0
KST3 200530Z 17010KT 28/14 A3006 RMK A01 T02840139  RH  041%=      5-min Rain = 0
KST3 200531Z 17012KT 28/14 A3006 RMK A01 T02840140  RH  041%=      5-min Rain = 0
KST3 200532Z 17013KT 28/14 A3006 RMK A01 T02840140  RH  041%=      5-min Rain = 0
KST3 200533Z 18014KT 28/14 A3006 RMK A01 T02840140  RH  041%=      5-min Rain = 0
KST3 200534Z 17012KT 28/14 A3006 RMK A01 T02840141  RH  042%=      5-min Rain = 0
KST3 200535Z 18013KT 28/14 A3006 RMK A01 T02830141  RH  042%=      5-min Rain = 0
KST3 200536Z 17011KT 28/14 A3006 RMK A01 T02830142  RH  042%=      5-min Rain = 0
KST3 200537Z 17014KT 28/14 A3006 RMK A01 T02830142  RH  042%=      5-min Rain = 0
KST3 200538Z 17013KT 28/14 A3006 RMK A01 T02830143  RH  042%=      5-min Rain = 0
KST3 200539Z 17012KT 28/14 A3006 RMK A01 T02830143  RH  042%=      5-min Rain = 0
KST3 200540Z 17012KT 28/14 A3006 RMK A01 T02820144  RH  043%=      5-min Rain = 0
KST3 200541Z 17012KT 28/14 A3006 RMK A01 T02820144  RH  043%=      5-min Rain = 0
KST3 200542Z 17012KT 28/14 A3006 RMK A01 T02820144  RH  043%=      5-min Rain = 0
KST3 200543Z 18014KT 28/15 A3006 RMK A01 T02820145  RH  043%=      5-min Rain = 0
KST3 200544Z 17014KT 28/15 A3006 RMK A01 T02820145  RH  043%=      5-min Rain = 0
KST3 200545Z 17013KT 28/15 A3006 RMK A01 T02820146  RH  043%=      5-min Rain = 0
KST3 200546Z 17012KT 28/15 A3006 RMK A01 T02820146  RH  043%=      5-min Rain = 0
KST3 200547Z 17011KT 28/15 A3006 RMK A01 T02820146  RH  043%=      5-min Rain = 0
KST3 200548Z 18012KT 28/15 A3006 RMK A01 T02820147  RH  044%=      5-min Rain = 0
KST3 200549Z 17012KT 28/15 A3006 RMK A01 T02810147  RH  044%=      5-min Rain = 0
KST3 200550Z 17014KT 28/15 A3006 RMK A01 T02820147  RH  044%=      5-min Rain = 0
KST3 200551Z 17011KT 28/15 A3006 RMK A01 T02820148  RH  044%=      5-min Rain = 0
KST3 200552Z 17013KT 28/15 A3006 RMK A01 T02820148  RH  044%=      5-min Rain = 0
KST3 200553Z 18012KT 28/15 A3006 RMK A01 T02820149  RH  044%=      5-min Rain = 0
KST3 200554Z 18013KT 28/15 A3006 RMK A01 T02820149  RH  044%=      5-min Rain = 0
KST3 200555Z 18012KT 28/15 A3006 RMK A01 T02820149  RH  044%=      5-min Rain = 0
KST3 200556Z 18012KT 28/15 A3006 RMK A01 T02820149  RH  044%=      5-min Rain = 0
KST3 200557Z 18012G17KT 28/15 A3006 RMK A01 T02820150  RH  044%=      5-min Rain = 0
KST3 200558Z 18012KT 28/15 A3006 RMK A01 T02820150  RH  044%=      5-min Rain = 0
KST3 200559Z 18012KT 28/15 A3006 RMK A01 T02820150  RH  044%=      5-min Rain = 0
KST3 200600Z 18012KT 28/15 A3006 RMK A01 T02830150  RH  044%=      5-min Rain = 0
KST3 200601Z 18013G18KT 28/15 A3006 RMK A01 T02830150  RH  044%=      5-min Rain = 0
KST3 200602Z 18013KT 28/15 A3006 RMK A01 T02840151  RH  044%=      5-min Rain = 0
KST3 200603Z 18012KT 29/15 A3006 RMK A01 T02850151  RH  044%=      5-min Rain = 0
KST3 200604Z 18011KT 29/15 A3006 RMK A01 T02850151  RH  044%=      5-min Rain = 0
KST3 200605Z 18010KT 29/15 A3006 RMK A01 T02850151  RH  044%=      5-min Rain = 0
KST3 200606Z 18012KT 29/15 A3006 RMK A01 T02850152  RH  044%=      5-min Rain = 0
KST3 200607Z 18012KT 29/15 A3006 RMK A01 T02850152  RH  044%=      5-min Rain = 0
KST3 200608Z 18012KT 29/15 A3006 RMK A01 T02850152  RH  044%=      5-min Rain = 0
KST3 200609Z 18011KT 29/15 A3006 RMK A01 T02850152  RH  044%=      5-min Rain = 0
KST3 200610Z 18012KT 29/15 A3006 RMK A01 T02850152  RH  044%=      5-min Rain = 0
KST3 200611Z 18011KT 29/15 A3006 RMK A01 T02850152  RH  044%=      5-min Rain = 0
KST3 200612Z 18009KT 29/15 A3006 RMK A01 T02850152  RH  044%=      5-min Rain = 0
KST3 200613Z 19010KT 28/15 A3006 RMK A01 T02840152  RH  045%=      5-min Rain = 0
KST3 200614Z 18009KT 28/15 A3006 RMK A01 T02840153  RH  045%=      5-min Rain = 0
KST3 200615Z 18008KT 28/15 A3006 RMK A01 T02830153  RH  045%=      5-min Rain = 0
KST3 200616Z 18009KT 28/15 A3006 RMK A01 T02830153  RH  045%=      5-min Rain = 0
KST3 200617Z 18009KT 28/15 A3006 RMK A01 T02820153  RH  045%=      5-min Rain = 0
KST3 200618Z 18008KT 28/15 A3006 RMK A01 T02820153  RH  045%=      5-min Rain = 0
KST3 200619Z 19008KT 28/15 A3006 RMK A01 T02810153  RH  046%=      5-min Rain = 0
KST3 200620Z 18009KT 28/15 A3006 RMK A01 T02810153  RH  046%=      5-min Rain = 0
KST3 200621Z 19008KT 28/15 A3006 RMK A01 T02810153  RH  045%=      5-min Rain = 0
KST3 200622Z 19009G14KT 28/15 A3006 RMK A01 T02820153  RH  046%=      5-min Rain = 0
KST3 200623Z 18010KT 28/15 A3006 RMK A01 T02810153  RH  045%=      5-min Rain = 0
KST3 200624Z 19012G17KT 28/15 A3006 RMK A01 T02820153  RH  045%=      5-min Rain = 0
KST3 200625Z 18012KT 28/15 A3006 RMK A01 T02820153  RH  045%=      5-min Rain = 0
KST3 200626Z 19011KT 28/15 A3006 RMK A01 T02830154  RH  045%=      5-min Rain = 0
KST3 200627Z 18012KT 28/15 A3006 RMK A01 T02830154  RH  045%=      5-min Rain = 0
KST3 200628Z 18011KT 28/15 A3006 RMK A01 T02830154  RH  045%=      5-min Rain = 0
KST3 200629Z 18011KT 28/15 A3006 RMK A01 T02830154  RH  045%=      5-min Rain = 0
KST3 200630Z 19012KT 28/15 A3006 RMK A01 T02830154  RH  045%=      5-min Rain = 0
KST3 200631Z 18010KT 28/15 A3006 RMK A01 T02830154  RH  045%=      5-min Rain = 0
KST3 200632Z 18011KT 28/15 A3006 RMK A01 T02830154  RH  045%=      5-min Rain = 0
KST3 200633Z 18011KT 28/15 A3006 RMK A01 T02830154  RH  045%=      5-min Rain = 0
KST3 200634Z 18011KT 28/15 A3006 RMK A01 T02830154  RH  045%=      5-min Rain = 0
KST3 200635Z 19012KT 28/15 A3007 RMK A01 T02830154  RH  045%=      5-min Rain = 0
KST3 200636Z 19011KT 28/15 A3007 RMK A01 T02830154  RH  045%=      5-min Rain = 0
KST3 200637Z 19012KT 28/15 A3007 RMK A01 T02830154  RH  045%=      5-min Rain = 0
KST3 200638Z 19009KT 28/15 A3007 RMK A01 T02830154  RH  045%=      5-min Rain = 0
KST3 200639Z 19010KT 28/15 A3007 RMK A01 T02830154  RH  046%=      5-min Rain = 0
KST3 200640Z 19011KT 28/16 A3007 RMK A01 T02830155  RH  046%=      5-min Rain = 0
KST3 200641Z 19011KT 28/16 A3007 RMK A01 T02830155  RH  046%=      5-min Rain = 0
KST3 200642Z 19011KT 28/16 A3007 RMK A01 T02830155  RH  046%=      5-min Rain = 0
KST3 200643Z 18011KT 28/16 A3007 RMK A01 T02830155  RH  046%=      5-min Rain = 0
KST3 200644Z 18010KT 28/15 A3007 RMK A01 T02830154  RH  046%=      5-min Rain = 0
KST3 200645Z 18011KT 28/16 A3007 RMK A01 T02830155  RH  046%=      5-min Rain = 0
KST3 200646Z 19008KT 28/16 A3007 RMK A01 T02830155  RH  046%=      5-min Rain = 0
KST3 200647Z 19011KT 28/16 A3007 RMK A01 T02820155  RH  046%=      5-min Rain = 0
KST3 200648Z 18010KT 28/16 A3007 RMK A01 T02820155  RH  046%=      5-min Rain = 0
KST3 200649Z 19011KT 28/16 A3007 RMK A01 T02820155  RH  046%=      5-min Rain = 0
KST3 200650Z 18009KT 28/16 A3007 RMK A01 T02820155  RH  046%=      5-min Rain = 0
KST3 200651Z 19010KT 28/16 A3007 RMK A01 T02820155  RH  046%=      5-min Rain = 0
KST3 200652Z 19012KT 28/16 A3007 RMK A01 T02820155  RH  046%=      5-min Rain = 0
KST3 200653Z 19010KT 28/16 A3007 RMK A01 T02820155  RH  046%=      5-min Rain = 0
KST3 200654Z 19011KT 28/16 A3007 RMK A01 T02820155  RH  046%=      5-min Rain = 0
KST3 200655Z 19009KT 28/16 A3007 RMK A01 T02820155  RH  046%=      5-min Rain = 0
KST3 200656Z 20009KT 28/16 A3007 RMK A01 T02820156  RH  046%=      5-min Rain = 0
KST3 200657Z 19010KT 28/16 A3007 RMK A01 T02810156  RH  047%=      5-min Rain = 0
KST3 200658Z 19009KT 28/16 A3007 RMK A01 T02800156  RH  047%=      5-min Rain = 0
KST3 200659Z 19009KT 28/16 A3007 RMK A01 T02800156  RH  047%=      5-min Rain = 0
KST3 200700Z 19009KT 28/16 A3007 RMK A01 T02800156  RH  047%=      5-min Rain = 0
KST3 200701Z 19007KT 28/16 A3007 RMK A01 T02790156  RH  047%=      5-min Rain = 0
KST3 200702Z 19007KT 28/16 A3007 RMK A01 T02790157  RH  047%=      5-min Rain = 0
KST3 200703Z 19008KT 28/16 A3007 RMK A01 T02780156  RH  047%=      5-min Rain = 0
KST3 200704Z 20008KT 28/16 A3007 RMK A01 T02770156  RH  048%=      5-min Rain = 0
KST3 200705Z 19009KT 28/16 A3007 RMK A01 T02770157  RH  048%=      5-min Rain = 0
KST3 200706Z 20009KT 28/16 A3007 RMK A01 T02770156  RH  048%=      5-min Rain = 0
KST3 200707Z 20008KT 28/16 A3007 RMK A01 T02780156  RH  047%=      5-min Rain = 0
KST3 200708Z 20009KT 28/16 A3007 RMK A01 T02780156  RH  047%=      5-min Rain = 0
KST3 200709Z 20008KT 28/16 A3007 RMK A01 T02780156  RH  048%=      5-min Rain = 0
KST3 200710Z 20008KT 28/16 A3007 RMK A01 T02770156  RH  048%=      5-min Rain = 0
KST3 200711Z 20009KT 28/16 A3007 RMK A01 T02770156  RH  048%=      5-min Rain = 0
KST3 200712Z 20009KT 28/16 A3007 RMK A01 T02770156  RH  048%=      5-min Rain = 0
KST3 200713Z 19009KT 28/16 A3007 RMK A01 T02780157  RH  048%=      5-min Rain = 0
KST3 200714Z 19009KT 28/16 A3007 RMK A01 T02780157  RH  047%=      5-min Rain = 0
KST3 200715Z 19010KT 28/16 A3007 RMK A01 T02780156  RH  047%=      5-min Rain = 0
KST3 200716Z 19009KT 28/16 A3007 RMK A01 T02790156  RH  047%=      5-min Rain = 0
KST3 200717Z 19009KT 28/16 A3007 RMK A01 T02790157  RH  047%=      5-min Rain = 0
KST3 200718Z 20009KT 28/16 A3007 RMK A01 T02790157  RH  047%=      5-min Rain = 0
KST3 200719Z 20009KT 28/16 A3007 RMK A01 T02790156  RH  047%=      5-min Rain = 0
KST3 200720Z 20008KT 28/16 A3007 RMK A01 T02790156  RH  047%=      5-min Rain = 0
KST3 200721Z 20008KT 28/16 A3007 RMK A01 T02790157  RH  047%=      5-min Rain = 0
KST3 200722Z 20007KT 28/16 A3007 RMK A01 T02790157  RH  048%=      5-min Rain = 0
KST3 200723Z 21007KT 28/16 A3007 RMK A01 T02770157  RH  048%=      5-min Rain = 0
KST3 200724Z 21007KT 28/16 A3007 RMK A01 T02770158  RH  048%=      5-min Rain = 0
KST3 200725Z 20007KT 28/16 A3007 RMK A01 T02750157  RH  049%=      5-min Rain = 0
KST3 200726Z 20007KT 27/16 A3007 RMK A01 T02740157  RH  049%=      5-min Rain = 0
KST3 200727Z 20007KT 27/16 A3007 RMK A01 T02730157  RH  049%=      5-min Rain = 0
KST3 200728Z 20007KT 27/16 A3007 RMK A01 T02730156  RH  049%=      5-min Rain = 0
KST3 200729Z 20008KT 27/16 A3007 RMK A01 T02740157  RH  049%=      5-min Rain = 0
KST3 200730Z 19007KT 28/16 A3007 RMK A01 T02750157  RH  049%=      5-min Rain = 0
KST3 200731Z 19009KT 28/16 A3007 RMK A01 T02750156  RH  048%=      5-min Rain = 0
KST3 200732Z 19008KT 28/16 A3007 RMK A01 T02770157  RH  048%=      5-min Rain = 0
KST3 200733Z 19008KT 28/16 A3007 RMK A01 T02770157  RH  048%=      5-min Rain = 0
KST3 200734Z 20008KT 28/16 A3007 RMK A01 T02770157  RH  048%=      5-min Rain = 0
KST3 200735Z 19009KT 28/16 A3007 RMK A01 T02770157  RH  048%=      5-min Rain = 0
KST3 200736Z 20010KT 28/16 A3007 RMK A01 T02770156  RH  048%=      5-min Rain = 0
KST3 200737Z 20009KT 28/16 A3007 RMK A01 T02780156  RH  047%=      5-min Rain = 0
KST3 200738Z 19009KT 28/16 A3007 RMK A01 T02780156  RH  047%=      5-min Rain = 0
KST3 200739Z 19011KT 28/16 A3007 RMK A01 T02780156  RH  047%=      5-min Rain = 0
KST3 200740Z 19010KT 28/16 A3007 RMK A01 T02790156  RH  047%=      5-min Rain = 0
KST3 200741Z 20011KT 28/16 A3007 RMK A01 T02790156  RH  047%=      5-min Rain = 0
KST3 200742Z 19010KT 28/16 A3007 RMK A01 T02800156  RH  047%=      5-min Rain = 0
KST3 200743Z 20010KT 28/16 A3007 RMK A01 T02800155  RH  047%=      5-min Rain = 0
KST3 200744Z 19010KT 28/16 A3007 RMK A01 T02800155  RH  047%=      5-min Rain = 0
KST3 200745Z 19011KT 28/16 A3007 RMK A01 T02810156  RH  047%=      5-min Rain = 0
KST3 200746Z 19010KT 28/16 A3007 RMK A01 T02800155  RH  047%=      5-min Rain = 0
KST3 200747Z 19010KT 28/16 A3007 RMK A01 T02810155  RH  046%=      5-min Rain = 0
KST3 200748Z 19008KT 28/16 A3007 RMK A01 T02810156  RH  046%=      5-min Rain = 0
KST3 200749Z 19010KT 28/16 A3007 RMK A01 T02800156  RH  047%=      5-min Rain = 0
KST3 200750Z 20009KT 28/16 A3007 RMK A01 T02800156  RH  047%=      5-min Rain = 0
KST3 200751Z 19011KT 28/16 A3007 RMK A01 T02800156  RH  047%=      5-min Rain = 0
KST3 200752Z 19011KT 28/16 A3007 RMK A01 T02800156  RH  047%=      5-min Rain = 0
KST3 200753Z 19012KT 28/16 A3007 RMK A01 T02800155  RH  047%=      5-min Rain = 0
KST3 200754Z 19010KT 28/16 A3007 RMK A01 T02810156  RH  046%=      5-min Rain = 0
KST3 200755Z 19011KT 28/16 A3007 RMK A01 T02810155  RH  046%=      5-min Rain = 0
KST3 200756Z 19010KT 28/16 A3007 RMK A01 T02810155  RH  046%=      5-min Rain = 0
KST3 200757Z 19010G15KT 28/16 A3007 RMK A01 T02810155  RH  046%=      5-min Rain = 0
KST3 200758Z 19011KT 28/16 A3007 RMK A01 T02810155  RH  046%=      5-min Rain = 0
KST3 200759Z 19013KT 28/16 A3007 RMK A01 T02810155  RH  046%=      5-min Rain = 0
KST3 200800Z 19012KT 28/16 A3007 RMK A01 T02810155  RH  046%=      5-min Rain = 0
KST3 200801Z 19012KT 28/16 A3007 RMK A01 T02820155  RH  046%=      5-min Rain = 0
KST3 200802Z 18012KT 28/16 A3007 RMK A01 T02820155  RH  046%=      5-min Rain = 0
KST3 200803Z 19011KT 28/16 A3007 RMK A01 T02830155  RH  046%=      5-min Rain = 0
KST3 200804Z 19013KT 28/16 A3007 RMK A01 T02830155  RH  046%=      5-min Rain = 0
KST3 200805Z 19011KT 28/15 A3007 RMK A01 T02830154  RH  046%=      5-min Rain = 0
KST3 200806Z 19010KT 28/16 A3007 RMK A01 T02830155  RH  046%=      5-min Rain = 0
KST3 200807Z 19012KT 28/16 A3007 RMK A01 T02820155  RH  046%=      5-min Rain = 0
KST3 200808Z 19012G17KT 28/15 A3007 RMK A01 T02820154  RH  046%=      5-min Rain = 0
KST3 200809Z 19014KT 28/15 A3007 RMK A01 T02820154  RH  046%=      5-min Rain = 0
KST3 200810Z 19013KT 28/15 A3007 RMK A01 T02830154  RH  045%=      5-min Rain = 0
KST3 200811Z 18013KT 28/15 A3007 RMK A01 T02840154  RH  045%=      5-min Rain = 0
KST3 200812Z 19011KT 29/15 A3007 RMK A01 T02850154  RH  045%=      5-min Rain = 0
KST3 200813Z 19010KT 29/16 A3007 RMK A01 T02850155  RH  045%=      5-min Rain = 0
KST3 200814Z 19010KT 28/16 A3007 RMK A01 T02830155  RH  046%=      5-min Rain = 0
KST3 200815Z 19013KT 28/16 A3007 RMK A01 T02830155  RH  046%=      5-min Rain = 0
KST3 200816Z 19010KT 28/15 A3007 RMK A01 T02830154  RH  045%=      5-min Rain = 0
KST3 200817Z 19009KT 28/16 A3007 RMK A01 T02830155  RH  046%=      5-min Rain = 0
KST3 200818Z 19010KT 28/16 A3007 RMK A01 T02820155  RH  046%=      5-min Rain = 0
KST3 200819Z 19009KT 28/15 A3007 RMK A01 T02820154  RH  046%=      5-min Rain = 0
KST3 200820Z 19010KT 28/16 A3007 RMK A01 T02820155  RH  046%=      5-min Rain = 0
KST3 200821Z 19009KT 28/16 A3007 RMK A01 T02810155  RH  046%=      5-min Rain = 0
KST3 200822Z 19008KT 28/16 A3007 RMK A01 T02810155  RH  046%=      5-min Rain = 0
KST3 200823Z 19008KT 28/16 A3007 RMK A01 T02810155  RH  046%=      5-min Rain = 0
KST3 200824Z 18009G16KT 28/16 A3007 RMK A01 T02800155  RH  046%=      5-min Rain = 0
KST3 200825Z 19010KT 28/15 A3007 RMK A01 T02800154  RH  046%=      5-min Rain = 0
KST3 200831Z 19008KT 28/16 A3007 RMK A01 T02810155  RH  046%=      5-min Rain = 0
KST3 200832Z 20009KT 28/16 A3007 RMK A01 T02800155  RH  046%=      5-min Rain = 0
KST3 200833Z 20010KT 28/16 A3007 RMK A01 T02800155  RH  047%=      5-min Rain = 0
KST3 200834Z 20010KT 28/16 A3007 RMK A01 T02790155  RH  047%=      5-min Rain = 0
KST3 200835Z 21009KT 28/16 A3007 RMK A01 T02790155  RH  047%=      5-min Rain = 0
KST3 200836Z 20010KT 28/15 A3007 RMK A01 T02780154  RH  047%=      5-min Rain = 0
KST3 200837Z 20010KT 28/16 A3007 RMK A01 T02790155  RH  047%=      5-min Rain = 0
KST3 200838Z 20008KT 28/16 A3007 RMK A01 T02790155  RH  047%=      5-min Rain = 0
KST3 200839Z 19008KT 28/16 A3007 RMK A01 T02790155  RH  047%=      5-min Rain = 0
KST3 200840Z 19008KT 28/16 A3007 RMK A01 T02780155  RH  047%=      5-min Rain = 0
KST3 200841Z 21007KT 28/16 A3007 RMK A01 T02780155  RH  047%=      5-min Rain = 0
KST3 200842Z 20010KT 28/16 A3007 RMK A01 T02770155  RH  047%=      5-min Rain = 0
KST3 200843Z 21007KT 28/16 A3007 RMK A01 T02780155  RH  047%=      5-min Rain = 0
KST3 200844Z 21007KT 28/16 A3007 RMK A01 T02780155  RH  047%=      5-min Rain = 0
KST3 200845Z 21008KT 28/16 A3007 RMK A01 T02770155  RH  047%=      5-min Rain = 0
KST3 200846Z 22007KT 28/16 A3007 RMK A01 T02760155  RH  048%=      5-min Rain = 0
KST3 200847Z 22007KT 28/16 A3007 RMK A01 T02750156  RH  048%=      5-min Rain = 0
KST3 200848Z 22007KT 27/16 A3007 RMK A01 T02740156  RH  048%=      5-min Rain = 0
KST3 200849Z 22007KT 27/16 A3007 RMK A01 T02730156  RH  049%=      5-min Rain = 0
KST3 200850Z 22008KT 27/16 A3007 RMK A01 T02710156  RH  049%=      5-min Rain = 0
KST3 200851Z 22007KT 27/16 A3007 RMK A01 T02710156  RH  049%=      5-min Rain = 0
KST3 200852Z 22008KT 27/16 A3007 RMK A01 T02700156  RH  050%=      5-min Rain = 0
KST3 200853Z 22008KT 27/16 A3007 RMK A01 T02700156  RH  050%=      5-min Rain = 0
KST3 200854Z 22008KT 27/16 A3008 RMK A01 T02690156  RH  050%=      5-min Rain = 0
KST3 200855Z 22009KT 27/16 A3008 RMK A01 T02700155  RH  050%=      5-min Rain = 0
KST3 200856Z 21007KT 27/16 A3008 RMK A01 T02700156  RH  050%=      5-min Rain = 0
KST3 200857Z 21008KT 27/16 A3007 RMK A01 T02700156  RH  050%=      5-min Rain = 0
KST3 200858Z 21009KT 27/16 A3008 RMK A01 T02700156  RH  050%=      5-min Rain = 0
KST3 200859Z 21009KT 27/16 A3007 RMK A01 T02700156  RH  050%=      5-min Rain = 0
KST3 200900Z 20010KT 27/16 A3007 RMK A01 T02700156  RH  050%=      5-min Rain = 0
KST3 200901Z 20008KT 27/16 A3008 RMK A01 T02710156  RH  049%=      5-min Rain = 0
KST3 200902Z 20009KT 27/16 A3007 RMK A01 T02710156  RH  049%=      5-min Rain = 0
KST3 200903Z 20010KT 27/16 A3007 RMK A01 T02720156  RH  049%=      5-min Rain = 0
KST3 200904Z 20010KT 27/16 A3007 RMK A01 T02720156  RH  049%=      5-min Rain = 0
KST3 200905Z 20009KT 27/16 A3008 RMK A01 T02730155  RH  049%=      5-min Rain = 0
KST3 200906Z 20009KT 27/16 A3008 RMK A01 T02730156  RH  049%=      5-min Rain = 0
KST3 200907Z 20009KT 27/16 A3008 RMK A01 T02730156  RH  049%=      5-min Rain = 0
KST3 200908Z 20010KT 27/16 A3008 RMK A01 T02730156  RH  049%=      5-min Rain = 0
KST3 200909Z 19011KT 27/16 A3008 RMK A01 T02730156  RH  049%=      5-min Rain = 0
KST3 200910Z 19009KT 27/16 A3008 RMK A01 T02730156  RH  049%=      5-min Rain = 0
KST3 200911Z 19010KT 27/16 A3008 RMK A01 T02730155  RH  049%=      5-min Rain = 0
KST3 200912Z 19011KT 27/16 A3008 RMK A01 T02740155  RH  048%=      5-min Rain = 0
KST3 200913Z 20012KT 28/16 A3008 RMK A01 T02750156  RH  048%=      5-min Rain = 0
KST3 200914Z 19012KT 28/16 A3008 RMK A01 T02750155  RH  048%=      5-min Rain = 0
KST3 200915Z 19010KT 28/16 A3008 RMK A01 T02760155  RH  048%=      5-min Rain = 0
KST3 200916Z 19010KT 28/16 A3008 RMK A01 T02770156  RH  048%=      5-min Rain = 0
KST3 200917Z 20010KT 28/16 A3008 RMK A01 T02760155  RH  048%=      5-min Rain = 0
KST3 200918Z 19010KT 28/16 A3008 RMK A01 T02760156  RH  048%=      5-min Rain = 0
KST3 200919Z 19010KT 28/16 A3008 RMK A01 T02760156  RH  048%=      5-min Rain = 0
KST3 200920Z 19011KT 28/16 A3008 RMK A01 T02760156  RH  048%=      5-min Rain = 0
KST3 200921Z 19009KT 28/16 A3008 RMK A01 T02760156  RH  048%=      5-min Rain = 0
KST3 200922Z 19010KT 28/16 A3008 RMK A01 T02760156  RH  048%=      5-min Rain = 0
KST3 200923Z 19010KT 28/16 A3008 RMK A01 T02760156  RH  048%=      5-min Rain = 0
KST3 200924Z 19012KT 28/16 A3008 RMK A01 T02750156  RH  048%=      5-min Rain = 0
KST3 200925Z 19010KT 28/16 A3008 RMK A01 T02750156  RH  048%=      5-min Rain = 0
KST3 200926Z 19008KT 28/16 A3008 RMK A01 T02750156  RH  048%=      5-min Rain = 0
KST3 200927Z 19009KT 27/16 A3008 RMK A01 T02740156  RH  049%=      5-min Rain = 0
KST3 200928Z 19009KT 27/16 A3008 RMK A01 T02740156  RH  049%=      5-min Rain = 0
KST3 200929Z 19009KT 27/16 A3008 RMK A01 T02740156  RH  049%=      5-min Rain = 0
KST3 200930Z 19009KT 27/16 A3008 RMK A01 T02730156  RH  049%=      5-min Rain = 0
KST3 200931Z 19010KT 27/16 A3008 RMK A01 T02730156  RH  049%=      5-min Rain = 0
KST3 200932Z 19009KT 27/16 A3008 RMK A01 T02740157  RH  049%=      5-min Rain = 0
KST3 200933Z 19009KT 27/16 A3008 RMK A01 T02740157  RH  049%=      5-min Rain = 0
KST3 200934Z 19009KT 27/16 A3008 RMK A01 T02730156  RH  049%=      5-min Rain = 0
KST3 200935Z 19007KT 27/16 A3008 RMK A01 T02730157  RH  049%=      5-min Rain = 0
KST3 200936Z 19009KT 27/16 A3008 RMK A01 T02720156  RH  049%=      5-min Rain = 0
KST3 200937Z 19009KT 27/16 A3008 RMK A01 T02720157  RH  049%=      5-min Rain = 0
KST3 200938Z 19008KT 27/16 A3008 RMK A01 T02720156  RH  049%=      5-min Rain = 0
KST3 200939Z 18009KT 27/16 A3008 RMK A01 T02720156  RH  049%=      5-min Rain = 0
KST3 200940Z 18008KT 27/16 A3008 RMK A01 T02720156  RH  049%=      5-min Rain = 0
KST3 200941Z 18009KT 27/16 A3008 RMK A01 T02720157  RH  049%=      5-min Rain = 0
KST3 200942Z 19008KT 27/16 A3008 RMK A01 T02710156  RH  049%=      5-min Rain = 0
KST3 200943Z 19009KT 27/16 A3008 RMK A01 T02710157  RH  050%=      5-min Rain = 0
KST3 200944Z 19009KT 27/16 A3008 RMK A01 T02710157  RH  050%=      5-min Rain = 0
KST3 200945Z 19007KT 27/16 A3008 RMK A01 T02710157  RH  050%=      5-min Rain = 0
KST3 200946Z 19008KT 27/16 A3008 RMK A01 T02710157  RH  050%=      5-min Rain = 0
KST3 200947Z 19008KT 27/16 A3008 RMK A01 T02710157  RH  050%=      5-min Rain = 0
KST3 200948Z 19008KT 27/16 A3008 RMK A01 T02700157  RH  050%=      5-min Rain = 0
KST3 200949Z 19007KT 27/16 A3008 RMK A01 T02700157  RH  050%=      5-min Rain = 0
KST3 200950Z 19007KT 27/16 A3008 RMK A01 T02700157  RH  050%=      5-min Rain = 0
KST3 200951Z 19007KT 27/16 A3008 RMK A01 T02690157  RH  050%=      5-min Rain = 0
KST3 200952Z 19007KT 27/16 A3008 RMK A01 T02690157  RH  050%=      5-min Rain = 0
KST3 200953Z 19008KT 27/16 A3008 RMK A01 T02690157  RH  050%=      5-min Rain = 0
KST3 200954Z 19007KT 27/16 A3008 RMK A01 T02690157  RH  050%=      5-min Rain = 0
KST3 200955Z 19007KT 27/16 A3008 RMK A01 T02690157  RH  050%=      5-min Rain = 0
KST3 200956Z 19007KT 27/16 A3008 RMK A01 T02680157  RH  050%=      5-min Rain = 0
KST3 200957Z 19006KT 27/16 A3008 RMK A01 T02690157  RH  050%=      5-min Rain = 0
KST3 200958Z 19006KT 27/16 A3008 RMK A01 T02680158  RH  051%=      5-min Rain = 0
KST3 200959Z 19007KT 27/16 A3008 RMK A01 T02670157  RH  051%=      5-min Rain = 0
KST3 201000Z 19007KT 27/16 A3008 RMK A01 T02670157  RH  051%=      5-min Rain = 0
KST3 201001Z 19006KT 27/16 A3008 RMK A01 T02660157  RH  051%=      5-min Rain = 0
KST3 201002Z 19007KT 27/16 A3008 RMK A01 T02660157  RH  051%=      5-min Rain = 0
KST3 201003Z 19007KT 27/16 A3008 RMK A01 T02670158  RH  051%=      5-min Rain = 0
KST3 201004Z 19006KT 27/16 A3008 RMK A01 T02660158  RH  051%=      5-min Rain = 0
KST3 201005Z 19006KT 27/16 A3008 RMK A01 T02660158  RH  051%=      5-min Rain = 0
KST3 201006Z 19006KT 27/16 A3008 RMK A01 T02650157  RH  052%=      5-min Rain = 0
KST3 201007Z 19006KT 27/16 A3008 RMK A01 T02650158  RH  052%=      5-min Rain = 0
KST3 201008Z 19006KT 27/16 A3008 RMK A01 T02650158  RH  052%=      5-min Rain = 0
KST3 201009Z 19007KT 27/16 A3008 RMK A01 T02650157  RH  052%=      5-min Rain = 0
KST3 201010Z 19007KT 27/16 A3008 RMK A01 T02650158  RH  052%=      5-min Rain = 0
KST3 201011Z 19006KT 27/16 A3008 RMK A01 T02650158  RH  052%=      5-min Rain = 0
KST3 201012Z 19006KT 27/16 A3008 RMK A01 T02650158  RH  052%=      5-min Rain = 0
KST3 201013Z 19006KT 26/16 A3008 RMK A01 T02640158  RH  052%=      5-min Rain = 0
KST3 201014Z 19006KT 26/16 A3008 RMK A01 T02640157  RH  052%=      5-min Rain = 0
KST3 201015Z 19006KT 26/16 A3008 RMK A01 T02640157  RH  052%=      5-min Rain = 0
KST3 201016Z 19006KT 26/16 A3008 RMK A01 T02640158  RH  052%=      5-min Rain = 0
KST3 201017Z 19006KT 26/16 A3008 RMK A01 T02630158  RH  052%=      5-min Rain = 0
KST3 201018Z 19006KT 26/16 A3008 RMK A01 T02630158  RH  052%=      5-min Rain = 0
KST3 201019Z 19006KT 26/16 A3008 RMK A01 T02630158  RH  052%=      5-min Rain = 0
KST3 201020Z 19006KT 26/16 A3008 RMK A01 T02630158  RH  053%=      5-min Rain = 0
KST3 201021Z 19007KT 26/16 A3008 RMK A01 T02620158  RH  053%=      5-min Rain = 0
KST3 201022Z 19007KT 26/16 A3008 RMK A01 T02610158  RH  053%=      5-min Rain = 0
KST3 201023Z 19007KT 26/16 A3008 RMK A01 T02610158  RH  053%=      5-min Rain = 0
KST3 201024Z 19007KT 26/16 A3008 RMK A01 T02610158  RH  053%=      5-min Rain = 0
KST3 201025Z 19007KT 26/16 A3008 RMK A01 T02610158  RH  053%=      5-min Rain = 0
KST3 201026Z 19007KT 26/16 A3008 RMK A01 T02610158  RH  053%=      5-min Rain = 0
KST3 201027Z 19008KT 26/16 A3008 RMK A01 T02610158  RH  053%=      5-min Rain = 0
KST3 201028Z 19007KT 26/16 A3008 RMK A01 T02610158  RH  053%=      5-min Rain = 0
KST3 201029Z 19008KT 26/16 A3008 RMK A01 T02610158  RH  053%=      5-min Rain = 0
KST3 201030Z 19007KT 26/16 A3008 RMK A01 T02610158  RH  053%=      5-min Rain = 0
KST3 201031Z 20007KT 26/16 A3008 RMK A01 T02610158  RH  053%=      5-min Rain = 0
KST3 201032Z 19008KT 26/16 A3008 RMK A01 T02610158  RH  053%=      5-min Rain = 0
KST3 201033Z 20008KT 26/16 A3008 RMK A01 T02600158  RH  053%=      5-min Rain = 0
KST3 201034Z 20008KT 26/16 A3008 RMK A01 T02590158  RH  054%=      5-min Rain = 0
KST3 201035Z 19008KT 26/16 A3008 RMK A01 T02580158  RH  054%=      5-min Rain = 0
KST3 201036Z 19008KT 26/16 A3008 RMK A01 T02570158  RH  054%=      5-min Rain = 0
KST3 201037Z 19008KT 26/16 A3008 RMK A01 T02570158  RH  054%=      5-min Rain = 0
KST3 201038Z 19009KT 26/16 A3008 RMK A01 T02570159  RH  054%=      5-min Rain = 0
KST3 201039Z 19009KT 26/16 A3008 RMK A01 T02580158  RH  054%=      5-min Rain = 0
KST3 201040Z 19009KT 26/16 A3008 RMK A01 T02590158  RH  054%=      5-min Rain = 0
KST3 201041Z 19009KT 26/16 A3008 RMK A01 T02590159  RH  054%=      5-min Rain = 0
KST3 201042Z 19009KT 26/16 A3008 RMK A01 T02590158  RH  054%=      5-min Rain = 0
KST3 201043Z 19010KT 26/16 A3008 RMK A01 T02590158  RH  054%=      5-min Rain = 0
KST3 201044Z 19009KT 26/16 A3008 RMK A01 T02590158  RH  054%=      5-min Rain = 0
KST3 201045Z 19010KT 26/16 A3008 RMK A01 T02600158  RH  054%=      5-min Rain = 0
KST3 201046Z 19010KT 26/16 A3008 RMK A01 T02600159  RH  054%=      5-min Rain = 0
KST3 201047Z 19009KT 26/16 A3008 RMK A01 T02610159  RH  053%=      5-min Rain = 0
KST3 201048Z 19009KT 26/16 A3008 RMK A01 T02600159  RH  054%=      5-min Rain = 0
KST3 201049Z 19009KT 26/16 A3008 RMK A01 T02600159  RH  054%=      5-min Rain = 0
KST3 201050Z 19010KT 26/16 A3008 RMK A01 T02600159  RH  054%=      5-min Rain = 0
KST3 201051Z 19010KT 26/16 A3008 RMK A01 T02600159  RH  054%=      5-min Rain = 0
KST3 201052Z 19009KT 26/16 A3008 RMK A01 T02600159  RH  053%=      5-min Rain = 0
KST3 201053Z 19008KT 26/16 A3008 RMK A01 T02610159  RH  053%=      5-min Rain = 0
KST3 201054Z 19009KT 26/16 A3008 RMK A01 T02600159  RH  054%=      5-min Rain = 0
KST3 201055Z 20009KT 26/16 A3008 RMK A01 T02590159  RH  054%=      5-min Rain = 0
KST3 201056Z 19009KT 26/16 A3008 RMK A01 T02600159  RH  054%=      5-min Rain = 0
KST3 201057Z 20009KT 26/16 A3008 RMK A01 T02600159  RH  054%=      5-min Rain = 0
KST3 201058Z 20009KT 26/16 A3008 RMK A01 T02600159  RH  054%=      5-min Rain = 0
KST3 201059Z 20009KT 26/16 A3008 RMK A01 T02600159  RH  054%=      5-min Rain = 0
KST3 201100Z 20009KT 26/16 A3008 RMK A01 T02600159  RH  054%=      5-min Rain = 0
KST3 201101Z 19009KT 26/16 A3008 RMK A01 T02600159  RH  054%=      5-min Rain = 0
KST3 201102Z 20009KT 26/16 A3008 RMK A01 T02600159  RH  054%=      5-min Rain = 0
KST3 201103Z 20008KT 26/16 A3008 RMK A01 T02600159  RH  054%=      5-min Rain = 0
KST3 201104Z 19010KT 26/16 A3008 RMK A01 T02600159  RH  054%=      5-min Rain = 0
KST3 201105Z 19009KT 26/16 A3008 RMK A01 T02600159  RH  054%=      5-min Rain = 0
KST3 201106Z 20009KT 26/16 A3008 RMK A01 T02610160  RH  054%=      5-min Rain = 0
KST3 201107Z 19009KT 26/16 A3008 RMK A01 T02610160  RH  054%=      5-min Rain = 0
KST3 201108Z 19009KT 26/16 A3008 RMK A01 T02600160  RH  054%=      5-min Rain = 0
KST3 201109Z 19009KT 26/16 A3008 RMK A01 T02600159  RH  054%=      5-min Rain = 0
KST3 201110Z 19009KT 26/16 A3008 RMK A01 T02600160  RH  054%=      5-min Rain = 0
KST3 201111Z 19010KT 26/16 A3008 RMK A01 T02600160  RH  054%=      5-min Rain = 0
KST3 201112Z 19008KT 26/16 A3008 RMK A01 T02600160  RH  054%=      5-min Rain = 0
KST3 201113Z 19010KT 26/16 A3008 RMK A01 T02600159  RH  054%=      5-min Rain = 0
KST3 201114Z 19009KT 26/16 A3008 RMK A01 T02600160  RH  054%=      5-min Rain = 0
KST3 201115Z 19009KT 26/16 A3008 RMK A01 T02590159  RH  054%=      5-min Rain = 0
KST3 201116Z 20008KT 26/16 A3008 RMK A01 T02600160  RH  054%=      5-min Rain = 0
KST3 201117Z 19009KT 26/16 A3008 RMK A01 T02590160  RH  054%=      5-min Rain = 0
KST3 201118Z 19009KT 26/16 A3008 RMK A01 T02580160  RH  054%=      5-min Rain = 0
KST3 201119Z 19009KT 26/16 A3008 RMK A01 T02590160  RH  054%=      5-min Rain = 0
KST3 201120Z 19008KT 26/16 A3008 RMK A01 T02590160  RH  054%=      5-min Rain = 0
KST3 201121Z 20008KT 26/16 A3008 RMK A01 T02580160  RH  055%=      5-min Rain = 0
KST3 201122Z 20009KT 26/16 A3008 RMK A01 T02570160  RH  055%=      5-min Rain = 0
KST3 201123Z 19008KT 26/16 A3008 RMK A01 T02570160  RH  055%=      5-min Rain = 0
KST3 201124Z 20009KT 26/16 A3008 RMK A01 T02570160  RH  055%=      5-min Rain = 0
KST3 201125Z 19009KT 26/16 A3008 RMK A01 T02570160  RH  055%=      5-min Rain = 0
KST3 201126Z 19009KT 26/16 A3008 RMK A01 T02570160  RH  055%=      5-min Rain = 0
KST3 201127Z 19008KT 26/16 A3008 RMK A01 T02570160  RH  055%=      5-min Rain = 0
KST3 201128Z 19009KT 26/16 A3008 RMK A01 T02570160  RH  055%=      5-min Rain = 0
KST3 201129Z 19009KT 26/16 A3008 RMK A01 T02580160  RH  055%=      5-min Rain = 0
KST3 201130Z 19008KT 26/16 A3008 RMK A01 T02580160  RH  055%=      5-min Rain = 0
KST3 201131Z 19009KT 26/16 A3008 RMK A01 T02580160  RH  055%=      5-min Rain = 0
KST3 201132Z 19009KT 26/16 A3008 RMK A01 T02580160  RH  055%=      5-min Rain = 0
KST3 201133Z 19009KT 26/16 A3008 RMK A01 T02580160  RH  055%=      5-min Rain = 0
KST3 201134Z 19009KT 26/16 A3008 RMK A01 T02570160  RH  055%=      5-min Rain = 0
KST3 201135Z 19009KT 26/16 A3008 RMK A01 T02570160  RH  055%=      5-min Rain = 0
KST3 201136Z 19009KT 26/16 A3008 RMK A01 T02570161  RH  055%=      5-min Rain = 0
KST3 201137Z 19009KT 26/16 A3008 RMK A01 T02570161  RH  055%=      5-min Rain = 0
KST3 201138Z 19008KT 26/16 A3008 RMK A01 T02570161  RH  055%=      5-min Rain = 0
KST3 201139Z 20009KT 26/16 A3008 RMK A01 T02570161  RH  055%=      5-min Rain = 0
KST3 201140Z 19009KT 26/16 A3008 RMK A01 T02560161  RH  055%=      5-min Rain = 0
KST3 201141Z 19009KT 26/16 A3008 RMK A01 T02560161  RH  055%=      5-min Rain = 0
KST3 201142Z 20009KT 26/16 A3008 RMK A01 T02560161  RH  055%=      5-min Rain = 0
KST3 201143Z 20009KT 26/16 A3008 RMK A01 T02560161  RH  055%=      5-min Rain = 0
KST3 201144Z 20010KT 26/16 A3008 RMK A01 T02560161  RH  055%=      5-min Rain = 0
KST3 201145Z 20009KT 26/16 A3008 RMK A01 T02560161  RH  055%=      5-min Rain = 0
KST3 201146Z 20009KT 26/16 A3008 RMK A01 T02560161  RH  056%=      5-min Rain = 0
KST3 201147Z 20009KT 26/16 A3008 RMK A01 T02560161  RH  056%=      5-min Rain = 0
KST3 201148Z 20009KT 26/16 A3008 RMK A01 T02550161  RH  056%=      5-min Rain = 0
KST3 201149Z 20008KT 25/16 A3008 RMK A01 T02540161  RH  056%=      5-min Rain = 0
KST3 201150Z 20009KT 25/16 A3008 RMK A01 T02540161  RH  056%=      5-min Rain = 0
KST3 201151Z 20008KT 25/16 A3008 RMK A01 T02530161  RH  056%=      5-min Rain = 0
KST3 201152Z 20008KT 25/16 A3008 RMK A01 T02530161  RH  057%=      5-min Rain = 0
KST3 201153Z 20009KT 25/16 A3008 RMK A01 T02530161  RH  057%=      5-min Rain = 0
KST3 201154Z 21009KT 25/16 A3008 RMK A01 T02530161  RH  057%=      5-min Rain = 0
KST3 201155Z 20009KT 25/16 A3008 RMK A01 T02520160  RH  057%=      5-min Rain = 0
KST3 201156Z 20009KT 25/16 A3008 RMK A01 T02520161  RH  057%=      5-min Rain = 0
KST3 201157Z 20009KT 25/16 A3008 RMK A01 T02520160  RH  057%=      5-min Rain = 0
KST3 201158Z 20009KT 25/16 A3008 RMK A01 T02520161  RH  057%=      5-min Rain = 0
KST3 201159Z 20009KT 25/16 A3008 RMK A01 T02520160  RH  057%=      5-min Rain = 0
KST3 201200Z 20009KT 25/16 A3008 RMK A01 T02520160  RH  057%=      5-min Rain = 0
KST3 201201Z 20010KT 25/16 A3008 RMK A01 T02520160  RH  057%=      5-min Rain = 0
KST3 201202Z 20010KT 25/16 A3009 RMK A01 T02520160  RH  056%=      5-min Rain = 0
KST3 201203Z 20010KT 25/16 A3009 RMK A01 T02530160  RH  056%=      5-min Rain = 0
KST3 201204Z 20010KT 25/16 A3009 RMK A01 T02530160  RH  056%=      5-min Rain = 0
KST3 201205Z 20010KT 25/16 A3008 RMK A01 T02530160  RH  056%=      5-min Rain = 0
KST3 201206Z 20010KT 25/16 A3008 RMK A01 T02530160  RH  056%=      5-min Rain = 0
KST3 201207Z 20010KT 25/16 A3008 RMK A01 T02540160  RH  056%=      5-min Rain = 0
KST3 201208Z 20009KT 25/16 A3008 RMK A01 T02540160  RH  056%=      5-min Rain = 0
KST3 201209Z 20010KT 25/16 A3009 RMK A01 T02540160  RH  056%=      5-min Rain = 0
KST3 201210Z 20011KT 25/16 A3009 RMK A01 T02540160  RH  056%=      5-min Rain = 0
KST3 201211Z 20009KT 25/16 A3009 RMK A01 T02540160  RH  056%=      5-min Rain = 0
KST3 201212Z 20009KT 25/16 A3009 RMK A01 T02540160  RH  056%=      5-min Rain = 0
KST3 201213Z 20010KT 25/16 A3009 RMK A01 T02530160  RH  056%=      5-min Rain = 0
KST3 201214Z 20010KT 25/16 A3009 RMK A01 T02530161  RH  057%=      5-min Rain = 0
KST3 201215Z 20010KT 25/16 A3009 RMK A01 T02520160  RH  057%=      5-min Rain = 0
KST3 201216Z 20009KT 25/16 A3009 RMK A01 T02520160  RH  057%=      5-min Rain = 0
KST3 201217Z 20010KT 25/16 A3009 RMK A01 T02520160  RH  057%=      5-min Rain = 0
KST3 201218Z 19010KT 25/16 A3009 RMK A01 T02520160  RH  057%=      5-min Rain = 0
KST3 201219Z 20010KT 25/16 A3009 RMK A01 T02520161  RH  057%=      5-min Rain = 0
KST3 201220Z 20010KT 25/16 A3009 RMK A01 T02520160  RH  057%=      5-min Rain = 0
KST3 201221Z 20009KT 25/16 A3009 RMK A01 T02520160  RH  057%=      5-min Rain = 0
KST3 201222Z 20010KT 25/16 A3009 RMK A01 T02520160  RH  057%=      5-min Rain = 0
KST3 201223Z 20009KT 25/16 A3009 RMK A01 T02520160  RH  057%=      5-min Rain = 0
KST3 201224Z 20009KT 25/16 A3009 RMK A01 T02530160  RH  057%=      5-min Rain = 0
KST3 201225Z 20009KT 25/16 A3009 RMK A01 T02530161  RH  057%=      5-min Rain = 0
KST3 201226Z 20009KT 25/16 A3009 RMK A01 T02530161  RH  057%=      5-min Rain = 0
KST3 201227Z 20009KT 25/16 A3009 RMK A01 T02520161  RH  057%=      5-min Rain = 0
KST3 201228Z 21009KT 25/16 A3009 RMK A01 T02520161  RH  057%=      5-min Rain = 0
KST3 201229Z 21009KT 25/16 A3009 RMK A01 T02520161  RH  057%=      5-min Rain = 0
KST3 201230Z 21009KT 25/16 A3009 RMK A01 T02510161  RH  057%=      5-min Rain = 0
KST3 201231Z 21009KT 25/16 A3009 RMK A01 T02500162  RH  058%=      5-min Rain = 0
KST3 201232Z 21009KT 25/16 A3009 RMK A01 T02500162  RH  058%=      5-min Rain = 0
KST3 201233Z 21009KT 25/16 A3009 RMK A01 T02500162  RH  058%=      5-min Rain = 0
KST3 201234Z 21009KT 25/16 A3009 RMK A01 T02500162  RH  058%=      5-min Rain = 0
KST3 201235Z 21008KT 25/16 A3009 RMK A01 T02500162  RH  058%=      5-min Rain = 0
KST3 201236Z 21008KT 25/16 A3009 RMK A01 T02500162  RH  058%=      5-min Rain = 0
KST3 201237Z 21008KT 25/16 A3009 RMK A01 T02500162  RH  058%=      5-min Rain = 0
KST3 201238Z 21008KT 25/16 A3009 RMK A01 T02500163  RH  058%=      5-min Rain = 0
KST3 201239Z 21009KT 25/16 A3009 RMK A01 T02490163  RH  059%=      5-min Rain = 0
KST3 201240Z 21008KT 25/16 A3009 RMK A01 T02490163  RH  059%=      5-min Rain = 0
KST3 201241Z 21009KT 25/16 A3009 RMK A01 T02490163  RH  059%=      5-min Rain = 0
KST3 201242Z 20009KT 25/16 A3009 RMK A01 T02490163  RH  059%=      5-min Rain = 0
KST3 201243Z 21008KT 25/16 A3009 RMK A01 T02490162  RH  058%=      5-min Rain = 0
KST3 201244Z 20009KT 25/16 A3009 RMK A01 T02500163  RH  058%=      5-min Rain = 0
KST3 201245Z 20009KT 25/16 A3009 RMK A01 T02500163  RH  058%=      5-min Rain = 0
KST3 201246Z 20009KT 25/16 A3009 RMK A01 T02510163  RH  058%=      5-min Rain = 0
KST3 201247Z 20009KT 25/16 A3009 RMK A01 T02510163  RH  058%=      5-min Rain = 0
KST3 201248Z 20009KT 25/16 A3009 RMK A01 T02520163  RH  058%=      5-min Rain = 0
KST3 201249Z 20010KT 25/16 A3009 RMK A01 T02530163  RH  057%=      5-min Rain = 0
KST3 201250Z 20009KT 25/16 A3009 RMK A01 T02540163  RH  057%=      5-min Rain = 0
KST3 201251Z 20010KT 25/16 A301 RMK A01 T02540163  RH  057%=      5-min Rain = 0
KST3 201252Z 20010KT 26/16 A3009 RMK A01 T02550163  RH  057%=      5-min Rain = 0
KST3 201253Z 20010KT 26/16 A3009 RMK A01 T02560163  RH  057%=      5-min Rain = 0
KST3 201254Z 20011KT 26/16 A3009 RMK A01 T02560163  RH  056%=      5-min Rain = 0
KST3 201255Z 20011KT 26/16 A3009 RMK A01 T02570163  RH  056%=      5-min Rain = 0
KST3 201256Z 19011KT 26/16 A3009 RMK A01 T02580162  RH  055%=      5-min Rain = 0
KST3 201257Z 20011KT 26/16 A301 RMK A01 T02590162  RH  055%=      5-min Rain = 0
KST3 201258Z 20010KT 26/16 A301 RMK A01 T02600162  RH  055%=      5-min Rain = 0
KST3 201259Z 20010KT 26/16 A301 RMK A01 T02610162  RH  055%=      5-min Rain = 0
KST3 201300Z 20009KT 26/16 A301 RMK A01 T02620162  RH  054%=      5-min Rain = 0
KST3 201301Z 20009KT 26/16 A301 RMK A01 T02620163  RH  054%=      5-min Rain = 0
KST3 201302Z 20009KT 26/16 A301 RMK A01 T02620163  RH  054%=      5-min Rain = 0
KST3 201303Z 20010KT 26/16 A301 RMK A01 T02620163  RH  054%=      5-min Rain = 0
KST3 201304Z 20010KT 26/16 A301 RMK A01 T02620163  RH  054%=      5-min Rain = 0
KST3 201305Z 20009KT 26/16 A301 RMK A01 T02630163  RH  054%=      5-min Rain = 0
KST3 201306Z 20008KT 26/16 A301 RMK A01 T02630163  RH  054%=      5-min Rain = 0
KST3 201307Z 20010KT 26/16 A301 RMK A01 T02640163  RH  054%=      5-min Rain = 0
KST3 201308Z 20010KT 27/16 A301 RMK A01 T02650163  RH  053%=      5-min Rain = 0
KST3 201309Z 20009KT 27/16 A301 RMK A01 T02660163  RH  053%=      5-min Rain = 0
KST3 201310Z 20011KT 27/16 A301 RMK A01 T02660164  RH  053%=      5-min Rain = 0
KST3 201311Z 20009KT 27/16 A301 RMK A01 T02660163  RH  053%=      5-min Rain = 0
KST3 201312Z 20008KT 27/16 A301 RMK A01 T02670163  RH  053%=      5-min Rain = 0
KST3 201313Z 20008KT 27/16 A301 RMK A01 T02670164  RH  053%=      5-min Rain = 0
KST3 201314Z 20008KT 27/16 A301 RMK A01 T02670164  RH  053%=      5-min Rain = 0
KST3 201315Z 20008KT 27/16 A301 RMK A01 T02680164  RH  053%=      5-min Rain = 0
KST3 201316Z 20008KT 27/16 A301 RMK A01 T02680164  RH  053%=      5-min Rain = 0
KST3 201317Z 20007KT 27/17 A301 RMK A01 T02690165  RH  053%=      5-min Rain = 0
KST3 201318Z 20008KT 27/17 A301 RMK A01 T02690165  RH  053%=      5-min Rain = 0
KST3 201319Z 20008KT 27/16 A301 RMK A01 T02700164  RH  052%=      5-min Rain = 0
KST3 201320Z 20007KT 27/16 A301 RMK A01 T02710164  RH  052%=      5-min Rain = 0
KST3 201321Z 20007KT 27/17 A301 RMK A01 T02730165  RH  052%=      5-min Rain = 0
KST3 201322Z 20008KT 27/17 A301 RMK A01 T02740165  RH  051%=      5-min Rain = 0
KST3 201323Z 21009KT 28/16 A301 RMK A01 T02750164  RH  051%=      5-min Rain = 0
KST3 201324Z 20009KT 28/16 A301 RMK A01 T02760164  RH  051%=      5-min Rain = 0
KST3 201325Z 20010KT 28/16 A301 RMK A01 T02770163  RH  050%=      5-min Rain = 0
KST3 201326Z 20010KT 28/16 A301 RMK A01 T02780163  RH  050%=      5-min Rain = 0
KST3 201327Z 20008KT 28/16 A301 RMK A01 T02780164  RH  050%=      5-min Rain = 0
KST3 201328Z 20008KT 28/17 A3011 RMK A01 T02790167  RH  050%=      5-min Rain = 0
KST3 201329Z 20009KT 28/17 A3011 RMK A01 T02800167  RH  050%=      5-min Rain = 0
KST3 201330Z 20008KT 28/17 A3011 RMK A01 T02820167  RH  050%=      5-min Rain = 0
KST3 201331Z 21010KT 28/17 A3011 RMK A01 T02820165  RH  049%=      5-min Rain = 0
KST3 201332Z 21011KT 28/16 A3011 RMK A01 T02830164  RH  048%=      5-min Rain = 0
KST3 201333Z 21008KT 28/17 A3011 RMK A01 T02830165  RH  049%=      5-min Rain = 0
KST3 201334Z 20007KT 28/17 A3011 RMK A01 T02840167  RH  049%=      5-min Rain = 0
KST3 201335Z 20009KT 28/17 A3011 RMK A01 T02840165  RH  048%=      5-min Rain = 0
KST3 201336Z 20008KT 28/17 A3011 RMK A01 T02840167  RH  049%=      5-min Rain = 0
KST3 201337Z 20008KT 28/17 A3011 RMK A01 T02840167  RH  049%=      5-min Rain = 0
KST3 201338Z 20009KT 28/17 A3011 RMK A01 T02840167  RH  049%=      5-min Rain = 0
KST3 201339Z 19009KT 28/17 A3011 RMK A01 T02840166  RH  049%=      5-min Rain = 0
KST3 201340Z 20009KT 28/17 A301 RMK A01 T02830165  RH  049%=      5-min Rain = 0
KST3 201341Z 21012KT 28/16 A301 RMK A01 T02830164  RH  048%=      5-min Rain = 0
KST3 201342Z 21011KT 28/16 A301 RMK A01 T02820162  RH  048%=      5-min Rain = 0
KST3 201343Z 21011KT 28/16 A3011 RMK A01 T02820163  RH  048%=      5-min Rain = 0
KST3 201344Z 21010KT 28/16 A3011 RMK A01 T02810163  RH  049%=      5-min Rain = 0
KST3 201345Z 20009KT 28/16 A3011 RMK A01 T02810164  RH  049%=      5-min Rain = 0
KST3 201346Z 21010KT 28/16 A301 RMK A01 T02810163  RH  049%=      5-min Rain = 0
KST3 201347Z 21009KT 28/16 A301 RMK A01 T02810164  RH  049%=      5-min Rain = 0
KST3 201348Z 21011KT 28/17 A301 RMK A01 T02830165  RH  049%=      5-min Rain = 0
KST3 201349Z 21009KT 28/16 A301 RMK A01 T02840164  RH  048%=      5-min Rain = 0
KST3 201350Z 22011KT 29/16 A301 RMK A01 T02850164  RH  048%=      5-min Rain = 0
KST3 201351Z 21010KT 29/16 A301 RMK A01 T02860163  RH  047%=      5-min Rain = 0
KST3 201352Z 21010KT 29/16 A301 RMK A01 T02880164  RH  047%=      5-min Rain = 0
KST3 201353Z 21010KT 29/16 A301 RMK A01 T02880163  RH  047%=      5-min Rain = 0
KST3 201354Z 22011KT 29/16 A301 RMK A01 T02880163  RH  047%=      5-min Rain = 0
KST3 201355Z 21010KT 29/16 A301 RMK A01 T02890164  RH  047%=      5-min Rain = 0
KST3 201356Z 22009KT 29/17 A301 RMK A01 T02890165  RH  047%=      5-min Rain = 0
KST3 201357Z 21010KT 29/16 A301 RMK A01 T02900164  RH  047%=      5-min Rain = 0
KST3 201358Z 22010KT 29/16 A301 RMK A01 T02890163  RH  047%=      5-min Rain = 0
KST3 201359Z 21010KT 29/16 A301 RMK A01 T02880164  RH  047%=      5-min Rain = 0
KST3 201400Z 21011KT 29/16 A301 RMK A01 T02870162  RH  047%=      5-min Rain = 0
KST3 201401Z 22009KT 29/16 A301 RMK A01 T02880164  RH  047%=      5-min Rain = 0
KST3 201402Z 21009KT 29/17 A301 RMK A01 T02870165  RH  048%=      5-min Rain = 0
KST3 201403Z 21010KT 29/16 A301 RMK A01 T02860164  RH  047%=      5-min Rain = 0
KST3 201404Z 21010KT 29/16 A301 RMK A01 T02860162  RH  047%=      5-min Rain = 0
KST3 201405Z 22009KT 29/16 A301 RMK A01 T02850161  RH  047%=      5-min Rain = 0
KST3 201406Z 21009KT 28/16 A301 RMK A01 T02840163  RH  048%=      5-min Rain = 0
KST3 201407Z 22009KT 28/16 A301 RMK A01 T02840163  RH  048%=      5-min Rain = 0
KST3 201408Z 21010KT 28/16 A301 RMK A01 T02840163  RH  048%=      5-min Rain = 0
KST3 201409Z 21009KT 28/16 A301 RMK A01 T02830162  RH  048%=      5-min Rain = 0
KST3 201410Z 21009KT 28/16 A301 RMK A01 T02830163  RH  048%=      5-min Rain = 0
KST3 201411Z 21008KT 28/16 A301 RMK A01 T02830164  RH  049%=      5-min Rain = 0
KST3 201412Z 21009KT 28/16 A301 RMK A01 T02830162  RH  048%=      5-min Rain = 0
KST3 201413Z 22009KT 28/16 A301 RMK A01 T02830161  RH  048%=      5-min Rain = 0
KST3 201414Z 22009KT 28/16 A301 RMK A01 T02820163  RH  048%=      5-min Rain = 0
KST3 201415Z 21008KT 28/16 A301 RMK A01 T02820163  RH  048%=      5-min Rain = 0
KST3 201416Z 21008KT 28/17 A301 RMK A01 T02820165  RH  049%=      5-min Rain = 0
KST3 201417Z 22008KT 28/17 A301 RMK A01 T02820165  RH  049%=      5-min Rain = 0
KST3 201418Z 21006KT 28/17 A301 RMK A01 T02820165  RH  049%=      5-min Rain = 0
KST3 201419Z 21008KT 28/17 A301 RMK A01 T02830165  RH  049%=      5-min Rain = 0
KST3 201420Z 21008KT 28/16 A301 RMK A01 T02830164  RH  048%=      5-min Rain = 0
KST3 201421Z 21008KT 28/16 A301 RMK A01 T02830164  RH  049%=      5-min Rain = 0
KST3 201422Z 21008KT 28/16 A301 RMK A01 T02830164  RH  048%=      5-min Rain = 0
KST3 201423Z 21007KT 28/16 A301 RMK A01 T02830164  RH  048%=      5-min Rain = 0
KST3 201424Z 21009KT 28/16 A301 RMK A01 T02830164  RH  048%=      5-min Rain = 0
KST3 201425Z 22009KT 28/16 A301 RMK A01 T02840162  RH  048%=      5-min Rain = 0
KST3 201426Z 21008KT 28/16 A301 RMK A01 T02840164  RH  048%=      5-min Rain = 0
KST3 201427Z 21006KT 29/17 A301 RMK A01 T02850167  RH  049%=      5-min Rain = 0
KST3 201428Z 21008KT 29/16 A301 RMK A01 T02860164  RH  048%=      5-min Rain = 0
KST3 201429Z 21008KT 29/16 A301 RMK A01 T02860164  RH  048%=      5-min Rain = 0
KST3 201430Z 22007KT 29/16 A301 RMK A01 T02860163  RH  047%=      5-min Rain = 0
KST3 201431Z 22008KT 29/17 A301 RMK A01 T02870166  RH  048%=      5-min Rain = 0
KST3 201432Z 21008KT 29/17 A301 RMK A01 T02870165  RH  048%=      5-min Rain = 0
KST3 201433Z 21009KT 29/17 A301 RMK A01 T02880166  RH  048%=      5-min Rain = 0
KST3 201434Z 21008KT 29/16 A301 RMK A01 T02880164  RH  047%=      5-min Rain = 0
KST3 201435Z 21010KT 29/16 A301 RMK A01 T02890164  RH  047%=      5-min Rain = 0
KST3 201436Z 21008KT 29/16 A301 RMK A01 T02890163  RH  046%=      5-min Rain = 0
KST3 201437Z 21009KT 29/16 A301 RMK A01 T02900162  RH  046%=      5-min Rain = 0
KST3 201438Z 20007KT 29/16 A301 RMK A01 T02910164  RH  046%=      5-min Rain = 0
KST3 201439Z 21009KT 29/17 A3011 RMK A01 T02920165  RH  046%=      5-min Rain = 0
KST3 201440Z 21010KT 29/16 A3011 RMK A01 T02930164  RH  046%=      5-min Rain = 0
KST3 201441Z 20009KT 29/16 A3011 RMK A01 T02940162  RH  045%=      5-min Rain = 0
KST3 201442Z 20012KT 29/16 A3011 RMK A01 T02940162  RH  045%=      5-min Rain = 0
KST3 201443Z 20011KT 29/16 A3011 RMK A01 T02940161  RH  045%=      5-min Rain = 0
KST3 201444Z 20010KT 29/16 A3011 RMK A01 T02940162  RH  045%=      5-min Rain = 0
KST3 201445Z 20011KT 30/16 A3011 RMK A01 T02950162  RH  045%=      5-min Rain = 0
KST3 201446Z 21011KT 30/16 A3011 RMK A01 T02950162  RH  045%=      5-min Rain = 0
KST3 201447Z 21011KT 30/16 A3011 RMK A01 T02950161  RH  044%=      5-min Rain = 0
KST3 201448Z 21012KT 30/16 A3011 RMK A01 T02950161  RH  044%=      5-min Rain = 0
KST3 201449Z 21012KT 30/16 A3011 RMK A01 T02950161  RH  044%=      5-min Rain = 0
KST3 201450Z 21012KT 29/16 A3011 RMK A01 T02940161  RH  045%=      5-min Rain = 0
KST3 201451Z 21013KT 29/16 A3011 RMK A01 T02940160  RH  044%=      5-min Rain = 0
KST3 201452Z 21011KT 29/16 A3011 RMK A01 T02930160  RH  045%=      5-min Rain = 0
KST3 201453Z 21012KT 29/16 A3011 RMK A01 T02930161  RH  045%=      5-min Rain = 0
KST3 201454Z 21012KT 29/16 A3011 RMK A01 T02930161  RH  045%=      5-min Rain = 0
KST3 201455Z 21013KT 29/16 A3011 RMK A01 T02920159  RH  045%=      5-min Rain = 0
KST3 201456Z 21012KT 29/16 A3011 RMK A01 T02920160  RH  045%=      5-min Rain = 0
KST3 201457Z 22011KT 29/16 A3011 RMK A01 T02920162  RH  045%=      5-min Rain = 0
KST3 201458Z 22013KT 29/16 A3011 RMK A01 T02920161  RH  045%=      5-min Rain = 0
KST3 201459Z 22013KT 29/16 A3011 RMK A01 T02920159  RH  044%=      5-min Rain = 0
KST3 201500Z 22012KT 29/16 A3011 RMK A01 T02910158  RH  045%=      5-min Rain = 0
KST3 201501Z 22013KT 29/16 A3011 RMK A01 T02910159  RH  045%=      5-min Rain = 0
KST3 201502Z 22010KT 29/16 A3011 RMK A01 T02910161  RH  045%=      5-min Rain = 0
KST3 201503Z 22010KT 29/16 A3011 RMK A01 T02910162  RH  046%=      5-min Rain = 0
KST3 201504Z 22010KT 29/16 A3011 RMK A01 T02920162  RH  045%=      5-min Rain = 0
KST3 201505Z 23011KT 29/16 A3011 RMK A01 T02920162  RH  045%=      5-min Rain = 0
KST3 201506Z 22010KT 29/16 A3011 RMK A01 T02920161  RH  045%=      5-min Rain = 0
KST3 201507Z 22010KT 29/16 A3011 RMK A01 T02930163  RH  045%=      5-min Rain = 0
KST3 201508Z 22011KT 29/16 A3011 RMK A01 T02930161  RH  045%=      5-min Rain = 0
KST3 201509Z 22009KT 29/16 A3011 RMK A01 T02940161  RH  045%=      5-min Rain = 0
KST3 201510Z 23010KT 29/16 A3011 RMK A01 T02940162  RH  045%=      5-min Rain = 0
KST3 201511Z 21009KT 29/16 A3011 RMK A01 T02940161  RH  045%=      5-min Rain = 0
KST3 201512Z 22009KT 29/16 A3011 RMK A01 T02940163  RH  045%=      5-min Rain = 0
KST3 201513Z 23010KT 30/16 A3011 RMK A01 T02950162  RH  045%=      5-min Rain = 0
KST3 201514Z 22011KT 30/16 A3011 RMK A01 T02950161  RH  044%=      5-min Rain = 0
KST3 201515Z 22010KT 30/16 A3011 RMK A01 T02950159  RH  044%=      5-min Rain = 0
KST3 201516Z 22011KT 29/16 A3011 RMK A01 T02940160  RH  044%=      5-min Rain = 0
KST3 201517Z 22012KT 29/16 A3011 RMK A01 T02940161  RH  045%=      5-min Rain = 0
KST3 201518Z 22011KT 29/16 A3011 RMK A01 T02940161  RH  044%=      5-min Rain = 0
KST3 201519Z 22010KT 29/16 A3011 RMK A01 T02940161  RH  044%=      5-min Rain = 0
KST3 201520Z 22010KT 29/16 A3011 RMK A01 T02940162  RH  045%=      5-min Rain = 0
KST3 201521Z 23010KT 30/17 A3011 RMK A01 T02950165  RH  045%=      5-min Rain = 0
KST3 201522Z 22008KT 30/17 A3011 RMK A01 T02970165  RH  045%=      5-min Rain = 0
KST3 201523Z 22009KT 30/16 A3011 RMK A01 T02990161  RH  043%=      5-min Rain = 0
KST3 201524Z 22011KT 30/16 A3011 RMK A01 T02980160  RH  043%=      5-min Rain = 0
KST3 201525Z 22012KT 30/16 A3011 RMK A01 T02980160  RH  043%=      5-min Rain = 0
KST3 201526Z 23011KT 30/16 A3011 RMK A01 T02980161  RH  044%=      5-min Rain = 0
KST3 201527Z 23011KT 30/16 A3011 RMK A01 T02980162  RH  044%=      5-min Rain = 0
KST3 201528Z 22013KT 30/16 A3011 RMK A01 T02990158  RH  043%=      5-min Rain = 0
KST3 201529Z 22014KT 30/16 A3011 RMK A01 T02990158  RH  042%=      5-min Rain = 0
KST3 201530Z 23013KT 30/16 A3011 RMK A01 T02980160  RH  043%=      5-min Rain = 0
KST3 201531Z 23016KT 30/16 A3011 RMK A01 T02980159  RH  043%=      5-min Rain = 0
KST3 201532Z 23014KT 30/16 A3011 RMK A01 T02980155  RH  042%=      5-min Rain = 0
KST3 201533Z 23012KT 30/16 A3011 RMK A01 T02970157  RH  043%=      5-min Rain = 0
KST3 201534Z 23015KT 30/16 A3011 RMK A01 T02960159  RH  043%=      5-min Rain = 0
KST3 201535Z 24015KT 30/16 A3011 RMK A01 T02960158  RH  043%=      5-min Rain = 0
KST3 201536Z 24018KT 30/16 A3011 RMK A01 T02960157  RH  043%=      5-min Rain = 0
KST3 201537Z 24014KT 30/15 A3011 RMK A01 T02960154  RH  042%=      5-min Rain = 0
KST3 201538Z 24014KT 30/16 A3011 RMK A01 T02960156  RH  043%=      5-min Rain = 0
KST3 201539Z 23014KT 30/16 A3011 RMK A01 T02960157  RH  043%=      5-min Rain = 0
KST3 201540Z 24012KT 30/16 A3011 RMK A01 T02950156  RH  043%=      5-min Rain = 0
KST3 201541Z 24015KT 30/16 A3011 RMK A01 T02960157  RH  043%=      5-min Rain = 0
KST3 201542Z 23015KT 30/16 A3011 RMK A01 T02950156  RH  043%=      5-min Rain = 0
KST3 201543Z 24014KT 29/16 A3011 RMK A01 T02940155  RH  043%=      5-min Rain = 0
KST3 201544Z 24013KT 29/16 A3011 RMK A01 T02930157  RH  044%=      5-min Rain = 0
KST3 201545Z 25012KT 29/16 A3011 RMK A01 T02930155  RH  043%=      5-min Rain = 0
KST3 201546Z 26012KT 29/16 A3011 RMK A01 T02930157  RH  044%=      5-min Rain = 0
KST3 201547Z 25010KT 29/16 A3011 RMK A01 T02920158  RH  044%=      5-min Rain = 0
KST3 201548Z 25010KT 29/16 A3011 RMK A01 T02930159  RH  045%=      5-min Rain = 0
KST3 201549Z 25014KT 29/16 A3011 RMK A01 T02930157  RH  044%=      5-min Rain = 0
KST3 201550Z 25014KT 29/15 A3011 RMK A01 T02920154  RH  043%=      5-min Rain = 0
KST3 201551Z 25012KT 29/16 A3011 RMK A01 T02910155  RH  044%=      5-min Rain = 0
KST3 201552Z 25012KT 29/16 A3011 RMK A01 T02910158  RH  044%=      5-min Rain = 0
KST3 201553Z 25011KT 29/16 A3012 RMK A01 T02910159  RH  045%=      5-min Rain = 0
KST3 201554Z 25014KT 29/16 A3011 RMK A01 T02910156  RH  044%=      5-min Rain = 0
KST3 201555Z 26015KT 29/15 A3011 RMK A01 T02910154  RH  044%=      5-min Rain = 0
KST3 201556Z 25012KT 29/16 A3011 RMK A01 T02900155  RH  044%=      5-min Rain = 0
KST3 201557Z 26011KT 29/16 A3011 RMK A01 T02890157  RH  045%=      5-min Rain = 0
KST3 201558Z 25012KT 29/16 A3011 RMK A01 T02890157  RH  045%=      5-min Rain = 0
KST3 201559Z 26012KT 29/16 A3011 RMK A01 T02890156  RH  045%=      5-min Rain = 0
KST3 201600Z 26011KT 29/16 A3011 RMK A01 T02890158  RH  045%=      5-min Rain = 0
KST3 201601Z 25010KT 29/16 A3011 RMK A01 T02890158  RH  045%=      5-min Rain = 0
KST3 201602Z 25012KT 29/16 A3011 RMK A01 T02880158  RH  045%=      5-min Rain = 0
KST3 201603Z 25012KT 29/16 A3011 RMK A01 T02880156  RH  045%=      5-min Rain = 0
KST3 201604Z 25011KT 29/16 A3011 RMK A01 T02880157  RH  045%=      5-min Rain = 0
KST3 201605Z 26010KT 29/16 A3011 RMK A01 T02880158  RH  045%=      5-min Rain = 0
KST3 201606Z 26010KT 29/16 A3011 RMK A01 T02880159  RH  046%=      5-min Rain = 0
KST3 201607Z 26010KT 29/16 A3011 RMK A01 T02870159  RH  046%=      5-min Rain = 0
KST3 201608Z 26011KT 29/16 A3011 RMK A01 T02880159  RH  046%=      5-min Rain = 0
KST3 201609Z 26010KT 29/16 A3011 RMK A01 T02870157  RH  045%=      5-min Rain = 0
KST3 201610Z 26010KT 29/16 A3011 RMK A01 T02870157  RH  045%=      5-min Rain = 0
KST3 201611Z 26011KT 29/16 A3011 RMK A01 T02880156  RH  045%=      5-min Rain = 0
KST3 201612Z 25010KT 29/16 A3011 RMK A01 T02870158  RH  045%=      5-min Rain = 0
KST3 201613Z 25013KT 29/16 A3011 RMK A01 T02880158  RH  046%=      5-min Rain = 0
KST3 201614Z 26013KT 29/16 A3012 RMK A01 T02880157  RH  045%=      5-min Rain = 0
KST3 201615Z 25012KT 29/16 A3012 RMK A01 T02880157  RH  045%=      5-min Rain = 0
KST3 201616Z 25010KT 29/16 A3012 RMK A01 T02880158  RH  045%=      5-min Rain = 0
KST3 201617Z 26012KT 29/16 A3011 RMK A01 T02880158  RH  045%=      5-min Rain = 0
KST3 201618Z 26011KT 29/16 A3011 RMK A01 T02880156  RH  045%=      5-min Rain = 0
KST3 201619Z 26009KT 29/16 A3011 RMK A01 T02880158  RH  045%=      5-min Rain = 0
KST3 201620Z 25012KT 29/16 A3011 RMK A01 T02880156  RH  045%=      5-min Rain = 0
KST3 201621Z 25012KT 29/16 A3011 RMK A01 T02880157  RH  045%=      5-min Rain = 0
KST3 201622Z 25012KT 29/16 A3011 RMK A01 T02890156  RH  045%=      5-min Rain = 0
KST3 201623Z 26012KT 29/15 A3011 RMK A01 T02890154  RH  044%=      5-min Rain = 0
KST3 201624Z 26011KT 29/15 A3011 RMK A01 T02890154  RH  044%=      5-min Rain = 0
KST3 201625Z 25012KT 29/16 A3011 RMK A01 T02890155  RH  044%=      5-min Rain = 0
KST3 201626Z 25011KT 29/16 A3011 RMK A01 T02890156  RH  044%=      5-min Rain = 0
KST3 201627Z 25012KT 29/16 A3011 RMK A01 T02890156  RH  044%=      5-min Rain = 0
KST3 201628Z 25012KT 29/16 A3011 RMK A01 T02890156  RH  044%=      5-min Rain = 0
KST3 201629Z 24011KT 29/16 A3011 RMK A01 T02900156  RH  044%=      5-min Rain = 0
KST3 201630Z 24010KT 29/16 A3011 RMK A01 T02910157  RH  044%=      5-min Rain = 0
KST3 201631Z 25011KT 29/16 A3011 RMK A01 T02920155  RH  044%=      5-min Rain = 0
KST3 201632Z 25010KT 29/16 A3011 RMK A01 T02920155  RH  043%=      5-min Rain = 0
KST3 201633Z 25011KT 29/15 A3011 RMK A01 T02920153  RH  043%=      5-min Rain = 0
KST3 201634Z 25010KT 29/15 A3011 RMK A01 T02930151  RH  042%=      5-min Rain = 0
KST3 201635Z 25009KT 29/15 A3011 RMK A01 T02930151  RH  042%=      5-min Rain = 0
KST3 201636Z 25009KT 29/15 A3011 RMK A01 T02930151  RH  042%=      5-min Rain = 0
KST3 201637Z 25008KT 29/15 A3011 RMK A01 T02940151  RH  042%=      5-min Rain = 0
KST3 201638Z 25009KT 29/15 A3011 RMK A01 T02940147  RH  041%=      5-min Rain = 0
KST3 201639Z 25009KT 29/15 A3011 RMK A01 T02940147  RH  041%=      5-min Rain = 0
KST3 201640Z 26008KT 29/15 A3011 RMK A01 T02940149  RH  041%=      5-min Rain = 0
KST3 201641Z 25009KT 30/15 A3011 RMK A01 T02950148  RH  041%=      5-min Rain = 0
KST3 201642Z 25007KT 29/15 A3011 RMK A01 T02940146  RH  040%=      5-min Rain = 0
KST3 201643Z 24010KT 29/14 A3011 RMK A01 T02940144  RH  040%=      5-min Rain = 0
KST3 201644Z 24009KT 29/15 A3011 RMK A01 T02940146  RH  040%=      5-min Rain = 0
KST3 201645Z 25009KT 29/15 A3011 RMK A01 T02940147  RH  041%=      5-min Rain = 0
KST3 201646Z 24007KT 29/15 A3011 RMK A01 T02940147  RH  041%=      5-min Rain = 0
KST3 201647Z 24007KT 29/15 A3011 RMK A01 T02940148  RH  041%=      5-min Rain = 0
KST3 201648Z 24007KT 29/15 A3011 RMK A01 T02940151  RH  042%=      5-min Rain = 0
KST3 201649Z 25008KT 29/15 A3011 RMK A01 T02940147  RH  041%=      5-min Rain = 0
KST3 201650Z 24007KT 29/15 A3011 RMK A01 T02940147  RH  041%=      5-min Rain = 0
KST3 201651Z 23008KT 29/15 A3011 RMK A01 T02940145  RH  040%=      5-min Rain = 0
KST3 201652Z 22006KT 29/14 A3011 RMK A01 T02940144  RH  040%=      5-min Rain = 0
KST3 201653Z 21007KT 30/15 A3011 RMK A01 T02950148  RH  041%=      5-min Rain = 0
KST3 201654Z 20007KT 29/15 A3011 RMK A01 T02940147  RH  041%=      5-min Rain = 0
KST3 201655Z 19007KT 29/15 A3011 RMK A01 T02940151  RH  042%=      5-min Rain = 0
KST3 201656Z 20009KT 29/15 A3011 RMK A01 T02940146  RH  040%=      5-min Rain = 0
KST3 201657Z 19009KT 29/14 A3011 RMK A01 T02940144  RH  040%=      5-min Rain = 0
KST3 201658Z 17008KT 29/15 A3011 RMK A01 T02940147  RH  041%=      5-min Rain = 0
KST3 201659Z 16009KT 29/15 A3011 RMK A01 T02940154  RH  043%=      5-min Rain = 0
KST3 201700Z 15008KT 29/16 A3011 RMK A01 T02930156  RH  044%=      5-min Rain = 0
KST3 201701Z 14006KT 29/16 A3011 RMK A01 T02920156  RH  044%=      5-min Rain = 0
KST3 201702Z 16006KT 29/16 A3011 RMK A01 T02910157  RH  044%=      5-min Rain = 0
KST3 201703Z 18005KT 29/16 A3011 RMK A01 T02900157  RH  044%=      5-min Rain = 0
KST3 201704Z 17005KT 29/16 A3011 RMK A01 T02900155  RH  044%=      5-min Rain = 0
KST3 201705Z 16005KT 29/15 A3011 RMK A01 T02900153  RH  043%=      5-min Rain = 0
KST3 201706Z 17006KT 29/16 A3011 RMK A01 T02900156  RH  044%=      5-min Rain = 0
KST3 201707Z 16006KT 29/16 A3011 RMK A01 T02900157  RH  044%=      5-min Rain = 0
KST3 201708Z 16007KT 29/16 A3011 RMK A01 T02910156  RH  044%=      5-min Rain = 0
KST3 201709Z 16007KT 29/15 A3011 RMK A01 T02920153  RH  043%=      5-min Rain = 0
KST3 201710Z 14006KT 29/15 A3011 RMK A01 T02920153  RH  043%=      5-min Rain = 0
KST3 201711Z 16005KT 29/15 A3011 RMK A01 T02920153  RH  043%=      5-min Rain = 0
KST3 201712Z 18005KT 29/15 A3011 RMK A01 T02920151  RH  042%=      5-min Rain = 0
KST3 201713Z 18005KT 29/15 A3011 RMK A01 T02920151  RH  042%=      5-min Rain = 0
KST3 201714Z 18008KT 29/15 A3011 RMK A01 T02920148  RH  042%=      5-min Rain = 0
KST3 201715Z 18008KT 29/14 A3011 RMK A01 T02930144  RH  040%=      5-min Rain = 0
KST3 201716Z 20010KT 29/14 A3011 RMK A01 T02940143  RH  040%=      5-min Rain = 0
KST3 201717Z 19009KT 30/14 A3011 RMK A01 T02950140  RH  039%=      5-min Rain = 0
KST3 201718Z 19009KT 30/14 A3011 RMK A01 T02950141  RH  039%=      5-min Rain = 0
KST3 201719Z 19009KT 30/14 A3011 RMK A01 T02950141  RH  039%=      5-min Rain = 0
KST3 201720Z 18009KT 30/14 A3011 RMK A01 T02950137  RH  038%=      5-min Rain = 0
KST3 201721Z 20009KT 30/14 A3011 RMK A01 T02950136  RH  038%=      5-min Rain = 0
KST3 201722Z 19007KT 30/13 A3011 RMK A01 T02960134  RH  037%=      5-min Rain = 0
KST3 201723Z 20008KT 30/14 A3011 RMK A01 T02960137  RH  038%=      5-min Rain = 0
KST3 201724Z 20006KT 30/14 A3011 RMK A01 T02970140  RH  038%=      5-min Rain = 0
KST3 201725Z 21006KT 30/14 A3011 RMK A01 T02970141  RH  039%=      5-min Rain = 0
KST3 201726Z 22006KT 30/14 A3011 RMK A01 T02970142  RH  039%=      5-min Rain = 0
KST3 201727Z 21006KT 30/14 A3011 RMK A01 T02970138  RH  038%=      5-min Rain = 0
KST3 201728Z 20007KT 30/14 A3011 RMK A01 T02970141  RH  038%=      5-min Rain = 0
KST3 201729Z 22009KT 30/14 A3011 RMK A01 T02970138  RH  038%=      5-min Rain = 0
KST3 201730Z 21006KT 30/14 A3011 RMK A01 T02980135  RH  037%=      5-min Rain = 0
KST3 201731Z 21006KT 30/14 A3011 RMK A01 T02990137  RH  037%=      5-min Rain = 0
KST3 201732Z 20006KT 30/14 A3011 RMK A01 T02990138  RH  037%=      5-min Rain = 0
KST3 201733Z 21008KT 30/14 A3011 RMK A01 T03000140  RH  038%=      5-min Rain = 0
KST3 201734Z 21011KT 30/14 A3011 RMK A01 T03000138  RH  037%=      5-min Rain = 0
KST3 201735Z 21011KT 30/14 A3011 RMK A01 T03000139  RH  037%=      5-min Rain = 0
KST3 201736Z 21008KT 30/14 A3011 RMK A01 T03000140  RH  038%=      5-min Rain = 0
KST3 201737Z 21007KT 30/14 A3011 RMK A01 T03000140  RH  038%=      5-min Rain = 0
KST3 201738Z 20008KT 30/14 A3011 RMK A01 T02990139  RH  038%=      5-min Rain = 0
KST3 201739Z 19007KT 30/14 A3011 RMK A01 T02990140  RH  038%=      5-min Rain = 0
KST3 201740Z 20008KT 30/14 A3011 RMK A01 T02980141  RH  038%=      5-min Rain = 0
KST3 201741Z 21008KT 30/14 A3011 RMK A01 T02980142  RH  039%=      5-min Rain = 0
KST3 201742Z 21007KT 30/14 A3011 RMK A01 T02970142  RH  039%=      5-min Rain = 0
KST3 201743Z 21009KT 30/14 A3011 RMK A01 T02980142  RH  039%=      5-min Rain = 0
KST3 201744Z 20009KT 30/14 A3011 RMK A01 T02980143  RH  039%=      5-min Rain = 0
KST3 201745Z 20007KT 30/15 A3011 RMK A01 T02980145  RH  039%=      5-min Rain = 0
KST3 201746Z 21006KT 30/15 A3011 RMK A01 T02980148  RH  040%=      5-min Rain = 0
KST3 201747Z 21008KT 30/15 A3011 RMK A01 T02980147  RH  040%=      5-min Rain = 0
KST3 201748Z 21009KT 30/15 A3011 RMK A01 T02980146  RH  040%=      5-min Rain = 0
KST3 201749Z 22009KT 30/15 A3011 RMK A01 T02980145  RH  039%=      5-min Rain = 0
KST3 201750Z 22009KT 30/15 A3011 RMK A01 T02990146  RH  039%=      5-min Rain = 0
KST3 201751Z 22009KT 30/15 A3011 RMK A01 T03000146  RH  039%=      5-min Rain = 0
KST3 201752Z 23010KT 30/14 A3011 RMK A01 T03010144  RH  038%=      5-min Rain = 0
KST3 201753Z 23009KT 30/14 A3011 RMK A01 T03020144  RH  038%=      5-min Rain = 0
KST3 201754Z 23011KT 30/14 A3011 RMK A01 T03030144  RH  038%=      5-min Rain = 0
KST3 201755Z 23012KT 30/14 A3011 RMK A01 T03030142  RH  037%=      5-min Rain = 0
KST3 201756Z 23013KT 30/14 A3011 RMK A01 T03040140  RH  037%=      5-min Rain = 0
KST3 201757Z 23010KT 30/14 A3011 RMK A01 T03040142  RH  037%=      5-min Rain = 0
KST3 201758Z 22010KT 31/14 A3011 RMK A01 T03050143  RH  037%=      5-min Rain = 0
KST3 201759Z 23010KT 31/14 A3011 RMK A01 T03050143  RH  037%=      5-min Rain = 0
KST3 201800Z 23010KT 31/14 A3011 RMK A01 T03050142  RH  037%=      5-min Rain = 0
KST3 201801Z 23011KT 31/14 A3011 RMK A01 T03050143  RH  037%=      5-min Rain = 0
KST3 201802Z 22012KT 31/14 A3011 RMK A01 T03050140  RH  037%=      5-min Rain = 0
KST3 201803Z 23011KT 31/14 A3011 RMK A01 T03050142  RH  037%=      5-min Rain = 0
KST3 201804Z 23010KT 31/14 A3011 RMK A01 T03050141  RH  037%=      5-min Rain = 0
KST3 201805Z 23011KT 31/14 A3011 RMK A01 T03050143  RH  037%=      5-min Rain = 0
KST3 201806Z 23012KT 31/14 A3011 RMK A01 T03050141  RH  037%=      5-min Rain = 0
KST3 201807Z 23011KT 30/14 A3011 RMK A01 T03040141  RH  037%=      5-min Rain = 0
KST3 201808Z 23012KT 30/14 A3011 RMK A01 T03040142  RH  037%=      5-min Rain = 0
KST3 201809Z 24011KT 30/14 A3011 RMK A01 T03040141  RH  037%=      5-min Rain = 0
KST3 201810Z 23010KT 30/14 A3011 RMK A01 T03040141  RH  037%=      5-min Rain = 0
KST3 201811Z 23010KT 30/14 A3011 RMK A01 T03040141  RH  037%=      5-min Rain = 0
KST3 201812Z 23011KT 30/14 A3011 RMK A01 T03040142  RH  037%=      5-min Rain = 0
KST3 201813Z 23011KT 31/14 A3011 RMK A01 T03050141  RH  037%=      5-min Rain = 0
KST3 201814Z 24009KT 30/14 A3011 RMK A01 T03040143  RH  037%=      5-min Rain = 0
KST3 201815Z 24009KT 30/14 A3011 RMK A01 T03040144  RH  038%=      5-min Rain = 0
KST3 201816Z 25008KT 30/14 A3011 RMK A01 T03040144  RH  038%=      5-min Rain = 0
KST3 201817Z 24008KT 30/15 A301 RMK A01 T03040145  RH  038%=      5-min Rain = 0
KST3 201818Z 24009KT 30/14 A301 RMK A01 T03040144  RH  038%=      5-min Rain = 0
KST3 201819Z 24009KT 30/14 A301 RMK A01 T03030144  RH  038%=      5-min Rain = 0
KST3 201820Z 25008KT 30/15 A301 RMK A01 T03030145  RH  038%=      5-min Rain = 0
KST3 201821Z 25009KT 30/15 A301 RMK A01 T03040146  RH  038%=      5-min Rain = 0
KST3 201822Z 25008KT 30/15 A301 RMK A01 T03030146  RH  038%=      5-min Rain = 0
KST3 201823Z 24007KT 30/15 A301 RMK A01 T03030147  RH  039%=      5-min Rain = 0
KST3 201824Z 24007KT 30/15 A301 RMK A01 T03030147  RH  039%=      5-min Rain = 0
KST3 201825Z 24008KT 30/15 A301 RMK A01 T03040147  RH  039%=      5-min Rain = 0
KST3 201826Z 25008KT 30/15 A301 RMK A01 T03040147  RH  038%=      5-min Rain = 0
KST3 201827Z 24008KT 30/15 A301 RMK A01 T03040148  RH  039%=      5-min Rain = 0
KST3 201828Z 23007KT 31/15 A301 RMK A01 T03050149  RH  039%=      5-min Rain = 0
KST3 201829Z 23008KT 31/15 A301 RMK A01 T03050148  RH  039%=      5-min Rain = 0
KST3 201830Z 22007KT 31/15 A301 RMK A01 T03050149  RH  039%=      5-min Rain = 0
KST3 201831Z 21008KT 31/15 A3011 RMK A01 T03050150  RH  039%=      5-min Rain = 0
KST3 201832Z 19009KT 31/15 A3011 RMK A01 T03050151  RH  039%=      5-min Rain = 0
KST3 201833Z 18011KT 31/15 A3011 RMK A01 T03050153  RH  040%=      5-min Rain = 0
KST3 201834Z 17011KT 31/16 A3011 RMK A01 T03050155  RH  040%=      5-min Rain = 0
KST3 201835Z 18010KT 31/16 A3011 RMK A01 T03050156  RH  041%=      5-min Rain = 0
KST3 201836Z 19010KT 30/16 A3011 RMK A01 T03030155  RH  041%=      5-min Rain = 0
KST3 201837Z 20008KT 30/16 A3011 RMK A01 T03010155  RH  041%=      5-min Rain = 0
KST3 201838Z 20007KT 30/16 A3011 RMK A01 T03000155  RH  042%=      5-min Rain = 0
KST3 201839Z 20010KT 30/16 A3011 RMK A01 T02990157  RH  042%=      5-min Rain = 0
KST3 201840Z 20009KT 30/16 A3011 RMK A01 T02990157  RH  042%=      5-min Rain = 0
KST3 201841Z 20009KT 30/16 A3011 RMK A01 T02990158  RH  042%=      5-min Rain = 0
KST3 201842Z 20010KT 30/16 A3011 RMK A01 T02990157  RH  042%=      5-min Rain = 0
KST3 201843Z 19009KT 30/16 A3011 RMK A01 T02990158  RH  043%=      5-min Rain = 0
KST3 201844Z 18013KT 30/16 A3011 RMK A01 T02980157  RH  042%=      5-min Rain = 0
KST3 201845Z 17013KT 30/16 A3011 RMK A01 T02980156  RH  042%=      5-min Rain = 0
KST3 201846Z 18012KT 30/16 A3011 RMK A01 T02970157  RH  042%=      5-min Rain = 0
KST3 201847Z 18011KT 30/16 A3011 RMK A01 T02980157  RH  043%=      5-min Rain = 0
KST3 201848Z 18009KT 30/16 A3011 RMK A01 T02980159  RH  043%=      5-min Rain = 0
KST3 201849Z 19011KT 30/16 A3011 RMK A01 T02980157  RH  042%=      5-min Rain = 0
KST3 201850Z 20009KT 30/16 A3011 RMK A01 T02980157  RH  043%=      5-min Rain = 0
KST3 201851Z 21012KT 30/16 A3011 RMK A01 T02980156  RH  042%=      5-min Rain = 0
KST3 201852Z 21012KT 30/16 A3011 RMK A01 T02980155  RH  042%=      5-min Rain = 0
KST3 201853Z 21013KT 30/15 A3011 RMK A01 T02970154  RH  042%=      5-min Rain = 0
KST3 201854Z 21013KT 30/15 A3011 RMK A01 T02980153  RH  042%=      5-min Rain = 0
KST3 201855Z 21014KT 30/15 A3011 RMK A01 T02990153  RH  041%=      5-min Rain = 0
KST3 201856Z 21013KT 30/15 A3011 RMK A01 T02990151  RH  040%=      5-min Rain = 0
KST3 201857Z 21014KT 30/15 A3011 RMK A01 T03000151  RH  041%=      5-min Rain = 0
KST3 201858Z 21011KT 30/15 A3011 RMK A01 T03000153  RH  041%=      5-min Rain = 0
KST3 201859Z 22011KT 30/15 A3011 RMK A01 T03000154  RH  041%=      5-min Rain = 0
KST3 201900Z 21011KT 30/15 A3011 RMK A01 T03010152  RH  040%=      5-min Rain = 0
KST3 201901Z 21010KT 30/15 A3011 RMK A01 T03010152  RH  040%=      5-min Rain = 0
KST3 201902Z 21010KT 30/15 A3011 RMK A01 T03010153  RH  041%=      5-min Rain = 0
KST3 201903Z 23011KT 30/15 A3011 RMK A01 T03010152  RH  040%=      5-min Rain = 0
KST3 201904Z 23009KT 30/15 A301 RMK A01 T03010151  RH  040%=      5-min Rain = 0
KST3 201905Z 22009KT 30/15 A301 RMK A01 T03010152  RH  041%=      5-min Rain = 0
KST3 201906Z 23008KT 30/15 A301 RMK A01 T03010151  RH  040%=      5-min Rain = 0
KST3 201907Z 23008KT 30/15 A301 RMK A01 T03010152  RH  040%=      5-min Rain = 0
KST3 201908Z 24008KT 30/15 A301 RMK A01 T03020147  RH  039%=      5-min Rain = 0
KST3 201909Z 24009KT 30/15 A301 RMK A01 T03020150  RH  040%=      5-min Rain = 0
KST3 201910Z 25009KT 30/15 A3009 RMK A01 T03030149  RH  039%=      5-min Rain = 0
KST3 201911Z 25009KT 30/15 A3009 RMK A01 T03040145  RH  038%=      5-min Rain = 0
KST3 201912Z 25010KT 31/14 A3009 RMK A01 T03060144  RH  037%=      5-min Rain = 0
KST3 201913Z 25009KT 31/14 A3009 RMK A01 T03070139  RH  036%=      5-min Rain = 0
KST3 201914Z 25010KT 31/14 A3009 RMK A01 T03080137  RH  035%=      5-min Rain = 0
KST3 201915Z 24011KT 31/14 A3009 RMK A01 T03090136  RH  035%=      5-min Rain = 0
KST3 201916Z 24010G15KT 31/14 A3009 RMK A01 T03100140  RH  036%=      5-min Rain = 0
KST3 201917Z 24013KT 31/14 A3009 RMK A01 T03100140  RH  035%=      5-min Rain = 0
KST3 201918Z 24014KT 31/14 A3009 RMK A01 T03090138  RH  035%=      5-min Rain = 0
KST3 201919Z 23012KT 31/14 A3009 RMK A01 T03090139  RH  035%=      5-min Rain = 0
KST3 201920Z 23010KT 31/14 A3009 RMK A01 T03080142  RH  036%=      5-min Rain = 0
KST3 201921Z 24012KT 31/14 A3009 RMK A01 T03080140  RH  036%=      5-min Rain = 0
KST3 201922Z 24011KT 31/14 A3009 RMK A01 T03080136  RH  035%=      5-min Rain = 0
KST3 201923Z 24011KT 31/14 A3009 RMK A01 T03090137  RH  035%=      5-min Rain = 0
KST3 201924Z 25011KT 31/14 A3009 RMK A01 T03090138  RH  035%=      5-min Rain = 0
KST3 201925Z 25013KT 31/14 A3008 RMK A01 T03100136  RH  034%=      5-min Rain = 0
KST3 201926Z 25014KT 31/14 A3009 RMK A01 T03110138  RH  035%=      5-min Rain = 0
KST3 201927Z 25014KT 31/14 A3009 RMK A01 T03110138  RH  035%=      5-min Rain = 0
KST3 201928Z 25013KT 31/14 A3009 RMK A01 T03110141  RH  035%=      5-min Rain = 0
KST3 201929Z 25012KT 31/14 A3009 RMK A01 T03110138  RH  035%=      5-min Rain = 0
KST3 201930Z 25011KT 31/14 A3009 RMK A01 T03110140  RH  035%=      5-min Rain = 0
KST3 201931Z 25014KT 31/14 A3009 RMK A01 T03120140  RH  035%=      5-min Rain = 0
KST3 201932Z 25014KT 31/14 A3009 RMK A01 T03130141  RH  035%=      5-min Rain = 0
KST3 201933Z 24014KT 31/14 A3009 RMK A01 T03130144  RH  036%=      5-min Rain = 0
KST3 201934Z 24014KT 31/14 A3009 RMK A01 T03120144  RH  036%=      5-min Rain = 0
KST3 201935Z 24013KT 31/15 A3009 RMK A01 T03120146  RH  037%=      5-min Rain = 0
KST3 201936Z 23015KT 31/15 A3009 RMK A01 T03120145  RH  036%=      5-min Rain = 0
KST3 201937Z 24017KT 31/14 A3009 RMK A01 T03130139  RH  035%=      5-min Rain = 0
KST3 201938Z 24013KT 31/14 A3009 RMK A01 T03130139  RH  035%=      5-min Rain = 0
KST3 201939Z 23014KT 31/14 A3009 RMK A01 T03140141  RH  035%=      5-min Rain = 0
KST3 201940Z 24014KT 32/14 A3009 RMK A01 T03150136  RH  034%=      5-min Rain = 0
KST3 201941Z 23015KT 32/13 A3009 RMK A01 T03150133  RH  033%=      5-min Rain = 0
KST3 201942Z 24015KT 32/13 A3009 RMK A01 T03160127  RH  031%=      5-min Rain = 0
KST3 201943Z 23015KT 32/13 A3009 RMK A01 T03160127  RH  032%=      5-min Rain = 0
KST3 201944Z 24013KT 32/13 A3009 RMK A01 T03160126  RH  031%=      5-min Rain = 0
KST3 201945Z 23014KT 32/13 A3009 RMK A01 T03150125  RH  031%=      5-min Rain = 0
KST3 201946Z 24012KT 32/13 A3009 RMK A01 T03150125  RH  031%=      5-min Rain = 0
KST3 201947Z 24011KT 32/13 A3009 RMK A01 T03150129  RH  032%=      5-min Rain = 0
KST3 201948Z 24012KT 32/13 A3009 RMK A01 T03150129  RH  032%=      5-min Rain = 0
KST3 201949Z 24011KT 32/13 A3009 RMK A01 T03150127  RH  032%=      5-min Rain = 0
KST3 201950Z 24011KT 32/13 A3009 RMK A01 T03150128  RH  032%=      5-min Rain = 0
KST3 201951Z 24011KT 32/13 A3009 RMK A01 T03150128  RH  032%=      5-min Rain = 0
KST3 201952Z 24011KT 32/13 A3009 RMK A01 T03150129  RH  032%=      5-min Rain = 0
KST3 201953Z 24008KT 32/13 A3009 RMK A01 T03150129  RH  032%=      5-min Rain = 0
KST3 201954Z 24006KT 32/13 A3009 RMK A01 T03150132  RH  033%=      5-min Rain = 0
KST3 201955Z 24009KT 32/13 A3009 RMK A01 T03150133  RH  033%=      5-min Rain = 0
KST3 201956Z 23007KT 32/13 A3009 RMK A01 T03150133  RH  033%=      5-min Rain = 0
KST3 201957Z 21007KT 32/13 A3009 RMK A01 T03150133  RH  033%=      5-min Rain = 0
KST3 201958Z 19006KT 31/13 A3009 RMK A01 T03140134  RH  033%=      5-min Rain = 0
KST3 201959Z 19006KT 31/13 A3009 RMK A01 T03140130  RH  033%=      5-min Rain = 0
KST3 202000Z 17006KT 31/13 A301 RMK A01 T03130132  RH  033%=      5-min Rain = 0
KST3 202001Z 17005KT 31/13 A301 RMK A01 T03130133  RH  033%=      5-min Rain = 0
KST3 202002Z 16005KT 31/13 A301 RMK A01 T03130134  RH  033%=      5-min Rain = 0
KST3 202003Z 16004KT 31/14 A301 RMK A01 T03130138  RH  034%=      5-min Rain = 0
KST3 202004Z 16005KT 31/14 A301 RMK A01 T03130137  RH  034%=      5-min Rain = 0
KST3 202005Z 17006KT 31/14 A3009 RMK A01 T03140139  RH  035%=      5-min Rain = 0
KST3 202006Z 18005KT 31/13 A3009 RMK A01 T03130132  RH  033%=      5-min Rain = 0
KST3 202007Z 20005KT 31/13 A3009 RMK A01 T03130133  RH  033%=      5-min Rain = 0
KST3 202008Z 21007KT 31/13 A3009 RMK A01 T03130133  RH  033%=      5-min Rain = 0
KST3 202009Z 21006KT 31/13 A3009 RMK A01 T03120128  RH  032%=      5-min Rain = 0
KST3 202010Z 21005KT 31/13 A3009 RMK A01 T03110129  RH  033%=      5-min Rain = 0
KST3 202011Z 20006KT 31/13 A3009 RMK A01 T03110129  RH  033%=      5-min Rain = 0
KST3 202012Z 19004KT 31/13 A3009 RMK A01 T03100129  RH  033%=      5-min Rain = 0
KST3 202013Z 18004KT 31/13 A3009 RMK A01 T03100134  RH  034%=      5-min Rain = 0
KST3 202014Z 18004KT 31/13 A3009 RMK A01 T03100132  RH  034%=      5-min Rain = 0
KST3 202015Z 15004KT 31/14 A3009 RMK A01 T03100135  RH  034%=      5-min Rain = 0
KST3 202016Z 14004KT 31/13 A3009 RMK A01 T03100132  RH  034%=      5-min Rain = 0
KST3 202017Z 14004KT 31/13 A3009 RMK A01 T03100130  RH  033%=      5-min Rain = 0
KST3 202018Z 14004KT 31/13 A3009 RMK A01 T03090132  RH  034%=      5-min Rain = 0
KST3 202019Z 14005KT 31/13 A3009 RMK A01 T03090134  RH  034%=      5-min Rain = 0
KST3 202020Z 14005KT 31/13 A3009 RMK A01 T03090130  RH  034%=      5-min Rain = 0
KST3 202021Z 13005KT 31/13 A3009 RMK A01 T03100129  RH  033%=      5-min Rain = 0
KST3 202022Z 14005KT 31/13 A3009 RMK A01 T03100126  RH  032%=      5-min Rain = 0
KST3 202023Z 14004KT 31/13 A3009 RMK A01 T03100128  RH  033%=      5-min Rain = 0
KST3 202024Z 15004KT 31/13 A3009 RMK A01 T03110129  RH  033%=      5-min Rain = 0
KST3 202025Z 15005KT 31/13 A3009 RMK A01 T03110130  RH  033%=      5-min Rain = 0
KST3 202026Z 14006KT 31/13 A3009 RMK A01 T03110131  RH  033%=      5-min Rain = 0
KST3 202027Z 14007KT 31/13 A3009 RMK A01 T03110127  RH  032%=      5-min Rain = 0
KST3 202028Z 16007KT 31/13 A3009 RMK A01 T03120127  RH  032%=      5-min Rain = 0
KST3 202029Z 16005KT 31/13 A3009 RMK A01 T03130128  RH  032%=      5-min Rain = 0
KST3 202030Z 17004KT 31/13 A3009 RMK A01 T03140132  RH  033%=      5-min Rain = 0
KST3 202031Z 18006KT 32/13 A3009 RMK A01 T03150134  RH  033%=      5-min Rain = 0
KST3 202032Z 19007KT 32/13 A3009 RMK A01 T03160130  RH  032%=      5-min Rain = 0
KST3 202033Z 18006KT 32/13 A3009 RMK A01 T03160127  RH  031%=      5-min Rain = 0
KST3 202034Z 19006KT 32/13 A3009 RMK A01 T03160134  RH  033%=      5-min Rain = 0
KST3 202035Z 19007KT 32/13 A3009 RMK A01 T03160134  RH  033%=      5-min Rain = 0
KST3 202036Z 20006KT 32/13 A3009 RMK A01 T03170131  RH  032%=      5-min Rain = 0
KST3 202037Z 20006KT 32/13 A3009 RMK A01 T03170131  RH  032%=      5-min Rain = 0
KST3 202038Z 19007KT 32/13 A3009 RMK A01 T03170132  RH  033%=      5-min Rain = 0
KST3 202039Z 19007KT 32/13 A3009 RMK A01 T03170132  RH  032%=      5-min Rain = 0
KST3 202040Z 19008KT 32/13 A3008 RMK A01 T03170132  RH  032%=      5-min Rain = 0
KST3 202041Z 19007KT 32/13 A3008 RMK A01 T03170134  RH  033%=      5-min Rain = 0
KST3 202042Z 20007KT 32/14 A3008 RMK A01 T03170136  RH  033%=      5-min Rain = 0
KST3 202043Z 21006KT 32/13 A3008 RMK A01 T03180134  RH  033%=      5-min Rain = 0
KST3 202044Z 20006KT 32/14 A3008 RMK A01 T03180137  RH  033%=      5-min Rain = 0
KST3 202045Z 21005KT 32/14 A3008 RMK A01 T03200136  RH  033%=      5-min Rain = 0
KST3 202046Z 21006KT 32/14 A3008 RMK A01 T03210138  RH  033%=      5-min Rain = 0
KST3 202047Z 21005KT 32/14 A3008 RMK A01 T03220136  RH  032%=      5-min Rain = 0
KST3 202048Z 21005KT 32/14 A3008 RMK A01 T03220139  RH  033%=      5-min Rain = 0
KST3 202049Z 20005KT 32/14 A3008 RMK A01 T03220138  RH  033%=      5-min Rain = 0
KST3 202050Z 22008KT 32/14 A3008 RMK A01 T03220137  RH  033%=      5-min Rain = 0
KST3 202051Z 22007KT 32/13 A3008 RMK A01 T03220132  RH  032%=      5-min Rain = 0
KST3 202052Z 21006KT 32/13 A3008 RMK A01 T03210134  RH  032%=      5-min Rain = 0
KST3 202053Z 22006KT 32/14 A3008 RMK A01 T03200138  RH  033%=      5-min Rain = 0
KST3 202054Z 22009KT 32/14 A3007 RMK A01 T03210135  RH  032%=      5-min Rain = 0
KST3 202055Z 23007KT 32/13 A3007 RMK A01 T03210132  RH  032%=      5-min Rain = 0
KST3 202056Z 23006KT 32/14 A3007 RMK A01 T03210141  RH  033%=      5-min Rain = 0
KST3 202057Z 22008KT 32/14 A3007 RMK A01 T03230139  RH  033%=      5-min Rain = 0
KST3 202058Z 22007KT 32/14 A3007 RMK A01 T03230139  RH  033%=      5-min Rain = 0
KST3 202059Z 23008KT 32/14 A3007 RMK A01 T03240140  RH  033%=      5-min Rain = 0
KST3 202100Z 22007KT 32/14 A3007 RMK A01 T03240139  RH  033%=      5-min Rain = 0
KST3 202101Z 21007KT 33/14 A3007 RMK A01 T03260136  RH  032%=      5-min Rain = 0
KST3 202102Z 21007KT 33/14 A3007 RMK A01 T03280140  RH  032%=      5-min Rain = 0
KST3 202103Z 21007KT 33/14 A3007 RMK A01 T03310136  RH  031%=      5-min Rain = 0
KST3 202104Z 21008KT 33/14 A3007 RMK A01 T03320136  RH  031%=      5-min Rain = 0
KST3 202105Z 21009KT 34/15 A3007 RMK A01 T03360150  RH  033%=      5-min Rain = 0
KST3 202106Z 22009KT 34/14 A3007 RMK A01 T03400135  RH  029%=      5-min Rain = 0
KST3 202107Z 20011KT 34/14 A3007 RMK A01 T03410135  RH  029%=      5-min Rain = 0
KST3 202108Z 20011KT 34/14 A3007 RMK A01 T03400135  RH  029%=      5-min Rain = 0
KST3 202109Z 19009KT 34/13 A3006 RMK A01 T03380133  RH  029%=      5-min Rain = 0
KST3 202110Z 20010KT 34/14 A3006 RMK A01 T03360135  RH  030%=      5-min Rain = 0
KST3 202111Z 20010KT 34/13 A3006 RMK A01 T03350129  RH  029%=      5-min Rain = 0
KST3 202112Z 19010KT 33/13 A3006 RMK A01 T03340127  RH  029%=      5-min Rain = 0
KST3 202113Z 19009KT 33/13 A3006 RMK A01 T03320125  RH  029%=      5-min Rain = 0
KST3 202114Z 18009KT 33/13 A3006 RMK A01 T03300127  RH  029%=      5-min Rain = 0
KST3 202115Z 18009KT 33/13 A3006 RMK A01 T03300129  RH  030%=      5-min Rain = 0
KST3 202116Z 17007KT 33/13 A3006 RMK A01 T03290131  RH  030%=      5-min Rain = 0
KST3 202117Z 18007KT 33/13 A3006 RMK A01 T03290131  RH  030%=      5-min Rain = 0
KST3 202118Z 18006KT 33/13 A3006 RMK A01 T03290130  RH  030%=      5-min Rain = 0
KST3 202119Z 17005KT 33/13 A3006 RMK A01 T03300133  RH  030%=      5-min Rain = 0
KST3 202120Z 17005KT 33/14 A3006 RMK A01 T03320139  RH  031%=      5-min Rain = 0
KST3 202121Z 17005KT 34/14 A3005 RMK A01 T03350137  RH  030%=      5-min Rain = 0
KST3 202122Z 16007KT 34/13 A3005 RMK A01 T03360131  RH  029%=      5-min Rain = 0
KST3 202123Z 16007KT 34/13 A3005 RMK A01 T03390128  RH  028%=      5-min Rain = 0
KST3 202124Z 17009KT 34/13 A3005 RMK A01 T03420126  RH  027%=      5-min Rain = 0
KST3 202125Z 17010KT 35/13 A3005 RMK A01 T03480125  RH  026%=      5-min Rain = 0
KST3 202126Z 17012KT 35/12 A3005 RMK A01 T03510118  RH  024%=      5-min Rain = 0
KST3 202127Z 18009KT 35/12 A3005 RMK A01 T03530122  RH  025%=      5-min Rain = 0
KST3 202128Z 17008KT 36/13 A3005 RMK A01 T03560127  RH  025%=      5-min Rain = 0
KST3 202129Z 17008KT 36/13 A3005 RMK A01 T03600127  RH  025%=      5-min Rain = 0
KST3 202130Z 17012KT 36/12 A3004 RMK A01 T03620118  RH  023%=      5-min Rain = 0
KST3 202131Z 19012KT 36/11 A3004 RMK A01 T03610108  RH  022%=      5-min Rain = 0
KST3 202132Z 20008KT 36/11 A3004 RMK A01 T03590111  RH  022%=      5-min Rain = 0
KST3 202133Z 17007KT 36/11 A3004 RMK A01 T03590112  RH  023%=      5-min Rain = 0
KST3 202134Z 16007KT 36/12 A3004 RMK A01 T03600120  RH  024%=      5-min Rain = 0
KST3 202135Z 18009KT 36/12 A3004 RMK A01 T03620121  RH  024%=      5-min Rain = 0
KST3 202136Z 17012KT 36/10 A3004 RMK A01 T03630104  RH  021%=      5-min Rain = 0
KST3 202137Z 19012KT 36/10 A3004 RMK A01 T03640103  RH  021%=      5-min Rain = 0
KST3 202138Z 18014G19KT 37/10 A3004 RMK A01 T03650097  RH  020%=      5-min Rain = 0
KST3 202139Z 19016KT 37/10 A3004 RMK A01 T03660096  RH  020%=      5-min Rain = 0
KST3 202140Z 19015KT 37/10 A3004 RMK A01 T03660095  RH  019%=      5-min Rain = 0
KST3 202141Z 18013KT 37/10 A3004 RMK A01 T03660095  RH  019%=      5-min Rain = 0
KST3 202142Z 17011KT 37/10 A3004 RMK A01 T03650095  RH  019%=      5-min Rain = 0
KST3 202143Z 17010G15KT 37/10 A3004 RMK A01 T03650101  RH  020%=      5-min Rain = 0
KST3 202144Z 17015KT 37/10 A3004 RMK A01 T03660098  RH  020%=      5-min Rain = 0
KST3 202145Z 17014KT 37/10 A3004 RMK A01 T03650097  RH  020%=      5-min Rain = 0
KST3 202146Z 16011KT 36/10 A3004 RMK A01 T03640097  RH  020%=      5-min Rain = 0
KST3 202147Z 16012G18KT 37/11 A3004 RMK A01 T03650106  RH  021%=      5-min Rain = 0
KST3 202148Z 16014KT 37/11 A3003 RMK A01 T03660105  RH  021%=      5-min Rain = 0
KST3 202149Z 16015KT 37/11 A3003 RMK A01 T03660105  RH  021%=      5-min Rain = 0
KST3 202150Z 16014KT 37/11 A3003 RMK A01 T03650108  RH  021%=      5-min Rain = 0
KST3 202151Z 17013KT 36/11 A3003 RMK A01 T03640108  RH  021%=      5-min Rain = 0
KST3 202152Z 17016KT 36/11 A3003 RMK A01 T03630113  RH  022%=      5-min Rain = 0
KST3 202153Z 18013KT 36/12 A3003 RMK A01 T03620115  RH  023%=      5-min Rain = 0
KST3 202154Z 19012KT 36/12 A3003 RMK A01 T03610117  RH  023%=      5-min Rain = 0
KST3 202155Z 18015KT 36/12 A3003 RMK A01 T03610118  RH  023%=      5-min Rain = 0
KST3 202156Z 18015KT 36/12 A3003 RMK A01 T03610116  RH  023%=      5-min Rain = 0
KST3 202157Z 17014KT 36/12 A3003 RMK A01 T03610122  RH  024%=      5-min Rain = 0
KST3 202158Z 18013KT 36/12 A3003 RMK A01 T03610119  RH  023%=      5-min Rain = 0
KST3 202159Z 18009KT 36/12 A3003 RMK A01 T03600123  RH  024%=      5-min Rain = 0
KST3 202200Z 19013KT 36/12 A3003 RMK A01 T03620124  RH  024%=      5-min Rain = 0
KST3 202201Z 20012KT 36/12 A3003 RMK A01 T03630122  RH  024%=      5-min Rain = 0
KST3 202202Z 18015KT 36/13 A3003 RMK A01 T03630125  RH  024%=      5-min Rain = 0
KST3 202203Z 17016KT 36/12 A3003 RMK A01 T03630121  RH  023%=      5-min Rain = 0
KST3 202204Z 16013KT 36/12 A3003 RMK A01 T03620121  RH  023%=      5-min Rain = 0
KST3 202205Z 18013KT 36/13 A3003 RMK A01 T03620126  RH  024%=      5-min Rain = 0
KST3 202206Z 19015G20KT 36/13 A3003 RMK A01 T03620125  RH  024%=      5-min Rain = 0
KST3 202207Z 18014KT 36/12 A3004 RMK A01 T03620122  RH  024%=      5-min Rain = 0
KST3 202208Z 17014KT 36/12 A3004 RMK A01 T03610124  RH  024%=      5-min Rain = 0
KST3 202209Z 17012G17KT 36/12 A3004 RMK A01 T03610122  RH  024%=      5-min Rain = 0
KST3 202210Z 17013KT 36/12 A3004 RMK A01 T03610121  RH  024%=      5-min Rain = 0
KST3 202211Z 16011KT 36/12 A3004 RMK A01 T03600120  RH  024%=      5-min Rain = 0
KST3 202212Z 18010KT 36/13 A3004 RMK A01 T03600126  RH  024%=      5-min Rain = 0
KST3 202213Z 17012G17KT 36/12 A3004 RMK A01 T03630120  RH  023%=      5-min Rain = 0
KST3 202214Z 19013KT 36/12 A3004 RMK A01 T03630122  RH  023%=      5-min Rain = 0
KST3 202215Z 19012KT 36/12 A3004 RMK A01 T03630121  RH  023%=      5-min Rain = 0
KST3 202216Z 19014KT 36/12 A3003 RMK A01 T03630120  RH  023%=      5-min Rain = 0
KST3 202217Z 19015KT 36/12 A3004 RMK A01 T03620121  RH  024%=      5-min Rain = 0
KST3 202218Z 18014KT 36/12 A3004 RMK A01 T03620123  RH  024%=      5-min Rain = 0
KST3 202219Z 19015KT 36/12 A3004 RMK A01 T03630123  RH  024%=      5-min Rain = 0
KST3 202220Z 18012KT 36/12 A3004 RMK A01 T03630123  RH  024%=      5-min Rain = 0
KST3 202221Z 17011KT 36/13 A3004 RMK A01 T03630126  RH  024%=      5-min Rain = 0
KST3 202222Z 17013KT 37/12 A3004 RMK A01 T03650122  RH  023%=      5-min Rain = 0
KST3 202223Z 16012KT 36/12 A3004 RMK A01 T03640121  RH  023%=      5-min Rain = 0
KST3 202224Z 16014KT 36/12 A3004 RMK A01 T03640120  RH  023%=      5-min Rain = 0
KST3 202225Z 17013KT 36/12 A3003 RMK A01 T03630120  RH  023%=      5-min Rain = 0
KST3 202226Z 17013KT 36/12 A3004 RMK A01 T03630120  RH  023%=      5-min Rain = 0
KST3 202227Z 18011KT 36/12 A3004 RMK A01 T03630123  RH  024%=      5-min Rain = 0
KST3 202228Z 19010KT 36/12 A3003 RMK A01 T03630122  RH  024%=      5-min Rain = 0
KST3 202229Z 19011KT 36/13 A3003 RMK A01 T03630126  RH  024%=      5-min Rain = 0
KST3 202230Z 16013G18KT 37/13 A3003 RMK A01 T03660127  RH  024%=      5-min Rain = 0
KST3 202231Z 17013KT 37/12 A3003 RMK A01 T03660123  RH  023%=      5-min Rain = 0
KST3 202232Z 16014KT 37/12 A3003 RMK A01 T03650122  RH  023%=      5-min Rain = 0
KST3 202233Z 16012KT 36/12 A3003 RMK A01 T03640120  RH  023%=      5-min Rain = 0
KST3 202234Z 17010G15KT 36/12 A3003 RMK A01 T03630121  RH  023%=      5-min Rain = 0
KST3 202235Z 16013KT 36/12 A3003 RMK A01 T03640123  RH  024%=      5-min Rain = 0
KST3 202236Z 17010KT 36/12 A3003 RMK A01 T03640123  RH  023%=      5-min Rain = 0
KST3 202237Z 17008KT 36/12 A3003 RMK A01 T03640123  RH  023%=      5-min Rain = 0
KST3 202238Z 16007KT 37/13 A3003 RMK A01 T03650127  RH  024%=      5-min Rain = 0
KST3 202239Z 17012KT 37/13 A3003 RMK A01 T03680127  RH  024%=      5-min Rain = 0
KST3 202240Z 16012KT 37/12 A3003 RMK A01 T03670123  RH  023%=      5-min Rain = 0
KST3 202241Z 16014KT 37/12 A3003 RMK A01 T03650124  RH  024%=      5-min Rain = 0
KST3 202242Z 16015KT 36/12 A3003 RMK A01 T03630123  RH  024%=      5-min Rain = 0
KST3 202243Z 16013KT 36/12 A3003 RMK A01 T03600122  RH  024%=      5-min Rain = 0
KST3 202244Z 16011KT 36/12 A3003 RMK A01 T03580124  RH  024%=      5-min Rain = 0
KST3 202245Z 16011G16KT 36/13 A3003 RMK A01 T03570126  RH  025%=      5-min Rain = 0
KST3 202246Z 17015KT 36/13 A3003 RMK A01 T03560129  RH  026%=      5-min Rain = 0
KST3 202247Z 18017G23KT 36/13 A3003 RMK A01 T03560131  RH  026%=      5-min Rain = 0
KST3 202248Z 18016KT 36/13 A3003 RMK A01 T03550133  RH  026%=      5-min Rain = 0
KST3 202249Z 18014KT 35/13 A3003 RMK A01 T03540133  RH  026%=      5-min Rain = 0
KST3 202250Z 18012KT 35/14 A3003 RMK A01 T03540135  RH  027%=      5-min Rain = 0
KST3 202251Z 19014KT 35/14 A3003 RMK A01 T03530135  RH  027%=      5-min Rain = 0
KST3 202252Z 18010KT 35/14 A3003 RMK A01 T03530135  RH  027%=      5-min Rain = 0
KST3 202253Z 18011KT 35/14 A3003 RMK A01 T03530138  RH  028%=      5-min Rain = 0
KST3 202254Z 16011KT 35/14 A3003 RMK A01 T03530138  RH  027%=      5-min Rain = 0
KST3 202255Z 16013KT 35/14 A3003 RMK A01 T03530139  RH  028%=      5-min Rain = 0
KST3 202256Z 14012KT 35/14 A3003 RMK A01 T03530135  RH  027%=      5-min Rain = 0
KST3 202257Z 15013G18KT 35/13 A3004 RMK A01 T03500133  RH  027%=      5-min Rain = 0
KST3 202258Z 15012KT 35/13 A3004 RMK A01 T03490133  RH  027%=      5-min Rain = 0
KST3 202259Z 16014G20KT 35/13 A3004 RMK A01 T03480134  RH  028%=      5-min Rain = 0
KST3 202300Z 16018G23KT 35/13 A3004 RMK A01 T03470133  RH  028%=      5-min Rain = 0
KST3 202301Z 16017KT 35/13 A3004 RMK A01 T03450132  RH  028%=      5-min Rain = 0
KST3 202302Z 17018KT 34/13 A3004 RMK A01 T03440132  RH  028%=      5-min Rain = 0
KST3 202303Z 17020KT 34/13 A3004 RMK A01 T03420132  RH  028%=      5-min Rain = 0
KST3 202304Z 16016KT 34/13 A3004 RMK A01 T03410133  RH  029%=      5-min Rain = 0
KST3 202305Z 16017KT 34/14 A3004 RMK A01 T03400135  RH  029%=      5-min Rain = 0
KST3 202306Z 16019KT 34/14 A3004 RMK A01 T03390135  RH  029%=      5-min Rain = 0
KST3 202307Z 16015KT 34/14 A3004 RMK A01 T03390135  RH  029%=      5-min Rain = 0
KST3 202308Z 16015KT 34/14 A3004 RMK A01 T03380136  RH  030%=      5-min Rain = 0
KST3 202309Z 16014KT 34/14 A3004 RMK A01 T03370136  RH  030%=      5-min Rain = 0
KST3 202310Z 16013KT 34/14 A3004 RMK A01 T03370137  RH  030%=      5-min Rain = 0
KST3 202311Z 16014KT 34/14 A3004 RMK A01 T03370137  RH  030%=      5-min Rain = 0
KST3 202312Z 16013KT 34/14 A3004 RMK A01 T03370137  RH  030%=      5-min Rain = 0
KST3 202313Z 17014KT 34/14 A3004 RMK A01 T03380138  RH  030%=      5-min Rain = 0
KST3 202314Z 16011KT 34/14 A3004 RMK A01 T03390140  RH  030%=      5-min Rain = 0
KST3 202315Z 16012KT 34/14 A3004 RMK A01 T03410140  RH  030%=      5-min Rain = 0
KST3 202316Z 16011G17KT 34/14 A3004 RMK A01 T03410140  RH  030%=      5-min Rain = 0
KST3 202317Z 16015KT 34/14 A3004 RMK A01 T03420140  RH  030%=      5-min Rain = 0
KST3 202318Z 16011KT 34/14 A3004 RMK A01 T03430142  RH  030%=      5-min Rain = 0
KST3 202319Z 16015KT 34/14 A3004 RMK A01 T03440140  RH  029%=      5-min Rain = 0
KST3 202320Z 16014KT 34/14 A3004 RMK A01 T03440141  RH  029%=      5-min Rain = 0
KST3 202321Z 16014KT 35/14 A3004 RMK A01 T03450140  RH  029%=      5-min Rain = 0
KST3 202322Z 16016KT 35/14 A3004 RMK A01 T03450140  RH  029%=      5-min Rain = 0
KST3 202323Z 16016KT 35/14 A3003 RMK A01 T03460140  RH  029%=      5-min Rain = 0
KST3 202324Z 16013KT 35/14 A3003 RMK A01 T03460141  RH  029%=      5-min Rain = 0
KST3 202325Z 16013G18KT 35/14 A3003 RMK A01 T03460143  RH  029%=      5-min Rain = 0
KST3 202326Z 16013KT 35/14 A3003 RMK A01 T03470143  RH  029%=      5-min Rain = 0
KST3 202327Z 16015KT 35/14 A3003 RMK A01 T03480144  RH  029%=      5-min Rain = 0
KST3 202328Z 16012G17KT 35/14 A3003 RMK A01 T03480144  RH  029%=      5-min Rain = 0
KST3 202329Z 16012KT 35/15 A3003 RMK A01 T03480145  RH  030%=      5-min Rain = 0
KST3 202330Z 16012KT 35/15 A3003 RMK A01 T03480145  RH  030%=      5-min Rain = 0
KST3 202331Z 16012KT 35/14 A3003 RMK A01 T03480144  RH  029%=      5-min Rain = 0
KST3 202332Z 16014KT 35/14 A3003 RMK A01 T03480144  RH  029%=      5-min Rain = 0
KST3 202333Z 16013KT 35/14 A3003 RMK A01 T03480143  RH  029%=      5-min Rain = 0
KST3 202334Z 15012KT 35/14 A3003 RMK A01 T03480143  RH  029%=      5-min Rain = 0
KST3 202335Z 16013KT 35/14 A3003 RMK A01 T03490143  RH  029%=      5-min Rain = 0
KST3 202336Z 16012KT 35/14 A3003 RMK A01 T03490144  RH  029%=      5-min Rain = 0
KST3 202337Z 16014G20KT 35/14 A3003 RMK A01 T03490140  RH  028%=      5-min Rain = 0
KST3 202338Z 16015KT 35/14 A3003 RMK A01 T03500138  RH  028%=      5-min Rain = 0
KST3 202339Z 16013KT 35/14 A3003 RMK A01 T03500137  RH  028%=      5-min Rain = 0
KST3 202340Z 16013KT 35/14 A3003 RMK A01 T03500137  RH  028%=      5-min Rain = 0
KST3 202341Z 15012KT 35/14 A3003 RMK A01 T03500136  RH  028%=      5-min Rain = 0
KST3 202342Z 15014KT 35/14 A3003 RMK A01 T03500135  RH  027%=      5-min Rain = 0
KST3 202343Z 15015KT 35/13 A3004 RMK A01 T03500134  RH  027%=      5-min Rain = 0
KST3 202344Z 15012KT 35/13 A3004 RMK A01 T03490133  RH  027%=      5-min Rain = 0
KST3 202345Z 15013KT 35/13 A3004 RMK A01 T03490134  RH  027%=      5-min Rain = 0
KST3 202346Z 15013KT 35/13 A3004 RMK A01 T03490131  RH  027%=      5-min Rain = 0
KST3 202347Z 15014KT 35/13 A3004 RMK A01 T03480130  RH  027%=      5-min Rain = 0
KST3 202348Z 15014KT 35/13 A3004 RMK A01 T03480131  RH  027%=      5-min Rain = 0
KST3 202349Z 15011KT 35/13 A3004 RMK A01 T03470130  RH  027%=      5-min Rain = 0
KST3 202350Z 15010KT 35/13 A3004 RMK A01 T03470132  RH  027%=      5-min Rain = 0
KST3 202351Z 15012KT 35/13 A3004 RMK A01 T03470130  RH  027%=      5-min Rain = 0
KST3 202352Z 15012KT 35/13 A3004 RMK A01 T03470129  RH  027%=      5-min Rain = 0
KST3 202353Z 15013KT 35/13 A3003 RMK A01 T03480129  RH  027%=      5-min Rain = 0
KST3 202354Z 15011KT 35/13 A3004 RMK A01 T03470130  RH  027%=      5-min Rain = 0
KST3 202355Z 16011KT 35/13 A3004 RMK A01 T03470131  RH  027%=      5-min Rain = 0
KST3 202356Z 15012KT 35/13 A3004 RMK A01 T03480132  RH  027%=      5-min Rain = 0
KST3 202357Z 16011KT 35/13 A3004 RMK A01 T03470131  RH  027%=      5-min Rain = 0
KST3 202358Z 16012KT 35/13 A3004 RMK A01 T03470130  RH  027%=      5-min Rain = 0
KST3 202359Z 16011KT 35/13 A3004 RMK A01 T03470131  RH  027%=      5-min Rain = 0
KST3 210000Z 16013KT 35/13 A3004 RMK A01 T03470129  RH  027%=      5-min Rain = 0
KST3 210001Z 15012KT 35/13 A3004 RMK A01 T03470129  RH  027%=      5-min Rain = 0
KST3 210002Z 16013KT 35/13 A3004 RMK A01 T03470128  RH  027%=      5-min Rain = 0
KST3 210003Z 16011KT 35/13 A3004 RMK A01 T03470128  RH  027%=      5-min Rain = 0
KST3 210004Z 16010KT 35/13 A3004 RMK A01 T03470129  RH  027%=      5-min Rain = 0
KST3 210005Z 16011KT 35/13 A3004 RMK A01 T03470127  RH  026%=      5-min Rain = 0
KST3 210006Z 16009KT 35/13 A3004 RMK A01 T03470128  RH  027%=      5-min Rain = 0
KST3 210007Z 16012KT 35/13 A3004 RMK A01 T03480128  RH  026%=      5-min Rain = 0
KST3 210008Z 16011KT 35/13 A3004 RMK A01 T03480125  RH  026%=      5-min Rain = 0
KST3 210009Z 16009KT 35/13 A3004 RMK A01 T03480126  RH  026%=      5-min Rain = 0
KST3 210010Z 16010KT 35/13 A3004 RMK A01 T03480127  RH  026%=      5-min Rain = 0
KST3 210011Z 16012KT 35/12 A3004 RMK A01 T03480123  RH  026%=      5-min Rain = 0
KST3 210012Z 16011KT 35/12 A3004 RMK A01 T03480124  RH  026%=      5-min Rain = 0
KST3 210013Z 16011KT 35/12 A3004 RMK A01 T03480124  RH  026%=      5-min Rain = 0
KST3 210014Z 15013KT 35/12 A3004 RMK A01 T03480122  RH  025%=      5-min Rain = 0
KST3 210015Z 16014KT 35/12 A3004 RMK A01 T03480118  RH  025%=      5-min Rain = 0
KST3 210016Z 17011KT 35/12 A3004 RMK A01 T03480117  RH  025%=      5-min Rain = 0
KST3 210017Z 16011KT 35/12 A3004 RMK A01 T03490119  RH  025%=      5-min Rain = 0
KST3 210018Z 16010KT 35/12 A3004 RMK A01 T03490121  RH  025%=      5-min Rain = 0
KST3 210019Z 17008KT 35/12 A3004 RMK A01 T03490119  RH  025%=      5-min Rain = 0
KST3 210020Z 17009KT 35/12 A3004 RMK A01 T03490120  RH  025%=      5-min Rain = 0
KST3 210021Z 17008KT 35/12 A3004 RMK A01 T03490121  RH  025%=      5-min Rain = 0
KST3 210022Z 17011KT 35/12 A3004 RMK A01 T03480119  RH  025%=      5-min Rain = 0
KST3 210023Z 18010KT 35/12 A3004 RMK A01 T03480118  RH  025%=      5-min Rain = 0
KST3 210024Z 17009KT 35/12 A3004 RMK A01 T03480120  RH  025%=      5-min Rain = 0
KST3 210025Z 17009KT 35/12 A3004 RMK A01 T03480119  RH  025%=      5-min Rain = 0
KST3 210026Z 17008KT 35/12 A3004 RMK A01 T03480119  RH  025%=      5-min Rain = 0
KST3 210027Z 17010KT 35/12 A3004 RMK A01 T03480119  RH  025%=      5-min Rain = 0
KST3 210028Z 18011KT 35/12 A3004 RMK A01 T03480116  RH  025%=      5-min Rain = 0
KST3 210029Z 18011KT 35/12 A3004 RMK A01 T03480116  RH  024%=      5-min Rain = 0
KST3 210030Z 17009KT 35/11 A3004 RMK A01 T03480114  RH  024%=      5-min Rain = 0
KST3 210031Z 16011KT 35/12 A3004 RMK A01 T03480115  RH  024%=      5-min Rain = 0
KST3 210032Z 17009KT 35/11 A3004 RMK A01 T03480114  RH  024%=      5-min Rain = 0
KST3 210033Z 18008KT 35/12 A3004 RMK A01 T03480117  RH  025%=      5-min Rain = 0
KST3 210034Z 17009KT 35/12 A3004 RMK A01 T03480116  RH  025%=      5-min Rain = 0
KST3 210035Z 17010KT 35/11 A3004 RMK A01 T03470114  RH  024%=      5-min Rain = 0
KST3 210036Z 17012KT 35/11 A3004 RMK A01 T03470113  RH  024%=      5-min Rain = 0
KST3 210037Z 18010KT 35/11 A3004 RMK A01 T03480114  RH  024%=      5-min Rain = 0
KST3 210038Z 18010KT 35/12 A3004 RMK A01 T03480117  RH  025%=      5-min Rain = 0
KST3 210039Z 17010KT 35/12 A3004 RMK A01 T03470117  RH  025%=      5-min Rain = 0
KST3 210040Z 18009KT 35/12 A3004 RMK A01 T03470117  RH  025%=      5-min Rain = 0
KST3 210041Z 18010KT 35/12 A3004 RMK A01 T03460115  RH  025%=      5-min Rain = 0
KST3 210042Z 18010KT 35/11 A3004 RMK A01 T03460114  RH  025%=      5-min Rain = 0
KST3 210043Z 18011KT 35/11 A3004 RMK A01 T03460114  RH  024%=      5-min Rain = 0
KST3 210044Z 18012KT 35/11 A3004 RMK A01 T03460111  RH  024%=      5-min Rain = 0
KST3 210045Z 18010KT 35/11 A3004 RMK A01 T03460112  RH  024%=      5-min Rain = 0
KST3 210046Z 18010KT 35/11 A3004 RMK A01 T03450113  RH  024%=      5-min Rain = 0
KST3 210047Z 18011KT 34/11 A3004 RMK A01 T03440112  RH  024%=      5-min Rain = 0
KST3 210048Z 19010KT 34/11 A3004 RMK A01 T03440111  RH  024%=      5-min Rain = 0
KST3 210049Z 18010KT 34/11 A3004 RMK A01 T03440111  RH  024%=      5-min Rain = 0
KST3 210050Z 17009KT 34/11 A3004 RMK A01 T03430112  RH  025%=      5-min Rain = 0
KST3 210051Z 18012KT 34/11 A3004 RMK A01 T03430114  RH  025%=      5-min Rain = 0
KST3 210052Z 18010KT 34/11 A3004 RMK A01 T03420114  RH  025%=      5-min Rain = 0
KST3 210053Z 18010KT 34/12 A3004 RMK A01 T03420116  RH  025%=      5-min Rain = 0
KST3 210054Z 18010KT 34/12 A3004 RMK A01 T03420117  RH  026%=      5-min Rain = 0
KST3 210055Z 18012KT 34/12 A3004 RMK A01 T03420117  RH  026%=      5-min Rain = 0
KST3 210056Z 18012KT 34/12 A3004 RMK A01 T03410117  RH  026%=      5-min Rain = 0
KST3 210057Z 18009KT 34/12 A3004 RMK A01 T03420116  RH  025%=      5-min Rain = 0
KST3 210058Z 18010KT 34/12 A3004 RMK A01 T03420118  RH  026%=      5-min Rain = 0
KST3 210059Z 18011KT 34/12 A3004 RMK A01 T03410120  RH  026%=      5-min Rain = 0
KST3 210100Z 18009KT 34/12 A3004 RMK A01 T03400120  RH  026%=      5-min Rain = 0
KST3 210101Z 18009KT 34/12 A3004 RMK A01 T03400120  RH  026%=      5-min Rain = 0
KST3 210102Z 17009KT 34/12 A3004 RMK A01 T03390121  RH  027%=      5-min Rain = 0
KST3 210103Z 18011KT 34/12 A3004 RMK A01 T03390122  RH  027%=      5-min Rain = 0
KST3 210104Z 17011KT 34/12 A3004 RMK A01 T03390122  RH  027%=      5-min Rain = 0
KST3 210105Z 17016KT 34/12 A3004 RMK A01 T03390124  RH  027%=      5-min Rain = 0
KST3 210106Z 16014G21KT 34/13 A3004 RMK A01 T03370128  RH  028%=      5-min Rain = 0
KST3 210107Z 15018KT 34/13 A3004 RMK A01 T03360131  RH  029%=      5-min Rain = 0
KST3 210108Z 16016KT 33/13 A3004 RMK A01 T03340133  RH  030%=      5-min Rain = 0
KST3 210109Z 16016KT 33/13 A3004 RMK A01 T03320133  RH  030%=      5-min Rain = 0
KST3 210110Z 16014KT 33/13 A3004 RMK A01 T03310134  RH  030%=      5-min Rain = 0
KST3 210111Z 16013KT 33/14 A3004 RMK A01 T03300135  RH  031%=      5-min Rain = 0
KST3 210112Z 16014KT 33/14 A3004 RMK A01 T03280135  RH  031%=      5-min Rain = 0
KST3 210113Z 16014KT 33/14 A3004 RMK A01 T03270136  RH  031%=      5-min Rain = 0
KST3 210114Z 16016KT 33/14 A3004 RMK A01 T03260137  RH  032%=      5-min Rain = 0
KST3 210115Z 16014KT 33/14 A3004 RMK A01 T03260137  RH  032%=      5-min Rain = 0
KST3 210116Z 16015KT 32/14 A3005 RMK A01 T03240138  RH  032%=      5-min Rain = 0
KST3 210117Z 16016KT 32/14 A3005 RMK A01 T03230138  RH  033%=      5-min Rain = 0
KST3 210118Z 16013KT 32/14 A3005 RMK A01 T03230139  RH  033%=      5-min Rain = 0
KST3 210119Z 16012KT 32/14 A3005 RMK A01 T03220139  RH  033%=      5-min Rain = 0
KST3 210120Z 16015KT 32/14 A3005 RMK A01 T03210139  RH  033%=      5-min Rain = 0
KST3 210121Z 16014KT 32/14 A3005 RMK A01 T03200139  RH  033%=      5-min Rain = 0
KST3 210122Z 16015KT 32/14 A3005 RMK A01 T03200140  RH  034%=      5-min Rain = 0
KST3 210123Z 16015KT 32/14 A3005 RMK A01 T03190140  RH  034%=      5-min Rain = 0
KST3 210124Z 16016KT 32/14 A3005 RMK A01 T03180140  RH  034%=      5-min Rain = 0
KST3 210125Z 16014KT 32/14 A3005 RMK A01 T03180140  RH  034%=      5-min Rain = 0
KST3 210126Z 16013KT 32/14 A3005 RMK A01 T03170141  RH  034%=      5-min Rain = 0
KST3 210127Z 16012KT 32/14 A3005 RMK A01 T03160141  RH  035%=      5-min Rain = 0
KST3 210128Z 16013KT 31/14 A3005 RMK A01 T03140141  RH  035%=      5-min Rain = 0
KST3 210129Z 16014KT 31/14 A3005 RMK A01 T03140141  RH  035%=      5-min Rain = 0
KST3 210130Z 16014G19KT 31/14 A3005 RMK A01 T03130141  RH  035%=      5-min Rain = 0
KST3 210131Z 16013KT 31/14 A3005 RMK A01 T03130141  RH  035%=      5-min Rain = 0
KST3 210132Z 16011KT 31/14 A3005 RMK A01 T03130142  RH  035%=      5-min Rain = 0
KST3 210133Z 16012G17KT 31/14 A3005 RMK A01 T03120142  RH  036%=      5-min Rain = 0
KST3 210134Z 16011KT 31/14 A3005 RMK A01 T03110142  RH  036%=      5-min Rain = 0
KST3 210135Z 16009KT 31/14 A3005 RMK A01 T03110142  RH  036%=      5-min Rain = 0
KST3 210136Z 16009KT 31/14 A3005 RMK A01 T03090142  RH  036%=      5-min Rain = 0
KST3 210137Z 16009KT 31/14 A3005 RMK A01 T03080142  RH  037%=      5-min Rain = 0
KST3 210138Z 16010KT 31/14 A3005 RMK A01 T03070143  RH  037%=      5-min Rain = 0
KST3 210139Z 16008KT 31/14 A3005 RMK A01 T03060143  RH  037%=      5-min Rain = 0
KST3 210140Z 16010KT 31/14 A3005 RMK A01 T03050143  RH  037%=      5-min Rain = 0
KST3 210141Z 16010KT 31/14 A3005 RMK A01 T03050143  RH  037%=      5-min Rain = 0
KST3 210142Z 16009KT 31/14 A3005 RMK A01 T03050143  RH  037%=      5-min Rain = 0
KST3 210143Z 16009KT 30/14 A3005 RMK A01 T03040143  RH  038%=      5-min Rain = 0
KST3 210144Z 17009KT 30/14 A3005 RMK A01 T03030143  RH  038%=      5-min Rain = 0
KST3 210145Z 16009KT 30/14 A3005 RMK A01 T03020144  RH  038%=      5-min Rain = 0
KST3 210146Z 17010KT 30/14 A3005 RMK A01 T03020144  RH  038%=      5-min Rain = 0
KST3 210147Z 16009KT 30/14 A3005 RMK A01 T03010144  RH  038%=      5-min Rain = 0
KST3 210148Z 16010KT 30/14 A3005 RMK A01 T03010144  RH  038%=      5-min Rain = 0
KST3 210149Z 17010KT 30/14 A3005 RMK A01 T03010144  RH  038%=      5-min Rain = 0
KST3 210150Z 17009KT 30/14 A3005 RMK A01 T03010143  RH  038%=      5-min Rain = 0
KST3 210151Z 17010KT 30/14 A3005 RMK A01 T03010144  RH  038%=      5-min Rain = 0
KST3 210152Z 17010KT 30/14 A3005 RMK A01 T03000143  RH  038%=      5-min Rain = 0
KST3 210153Z 17009KT 30/14 A3005 RMK A01 T03000143  RH  038%=      5-min Rain = 0
KST3 210154Z 16008KT 30/14 A3005 RMK A01 T03000144  RH  039%=      5-min Rain = 0
KST3 210155Z 17009KT 30/14 A3005 RMK A01 T02990144  RH  039%=      5-min Rain = 0
KST3 210156Z 17011KT 30/14 A3005 RMK A01 T02980143  RH  039%=      5-min Rain = 0
KST3 210157Z 17010KT 30/14 A3005 RMK A01 T02990143  RH  039%=      5-min Rain = 0
KST3 210158Z 17010KT 30/14 A3005 RMK A01 T03000144  RH  039%=      5-min Rain = 0
KST3 210159Z 17010KT 30/14 A3005 RMK A01 T03000144  RH  039%=      5-min Rain = 0
KST3 210200Z 17010KT 30/14 A3005 RMK A01 T02990143  RH  039%=      5-min Rain = 0
KST3 210201Z 17011KT 30/14 A3005 RMK A01 T02990143  RH  039%=      5-min Rain = 0
KST3 210202Z 17010KT 30/14 A3005 RMK A01 T02990144  RH  039%=      5-min Rain = 0
KST3 210203Z 17009KT 30/14 A3005 RMK A01 T02980143  RH  039%=      5-min Rain = 0
KST3 210204Z 17010KT 30/14 A3005 RMK A01 T02970143  RH  039%=      5-min Rain = 0
KST3 210205Z 17009KT 30/14 A3005 RMK A01 T02970143  RH  039%=      5-min Rain = 0
KST3 210206Z 17010KT 30/14 A3005 RMK A01 T02960143  RH  039%=      5-min Rain = 0
KST3 210207Z 17011KT 30/14 A3005 RMK A01 T02970143  RH  039%=      5-min Rain = 0
KST3 210208Z 17010KT 30/14 A3005 RMK A01 T02970143  RH  039%=      5-min Rain = 0
KST3 210209Z 17010KT 30/14 A3005 RMK A01 T02970143  RH  039%=      5-min Rain = 0
KST3 210210Z 17010KT 30/14 A3005 RMK A01 T02970143  RH  039%=      5-min Rain = 0
KST3 210211Z 17009KT 30/14 A3005 RMK A01 T02970143  RH  039%=      5-min Rain = 0
KST3 210212Z 17009KT 30/14 A3005 RMK A01 T02970143  RH  039%=      5-min Rain = 0
KST3 210213Z 17009KT 30/14 A3005 RMK A01 T02970143  RH  039%=      5-min Rain = 0
KST3 210214Z 17009KT 30/14 A3005 RMK A01 T02960143  RH  039%=      5-min Rain = 0
KST3 210215Z 17007KT 30/14 A3006 RMK A01 T02960143  RH  039%=      5-min Rain = 0
KST3 210216Z 17007KT 30/14 A3006 RMK A01 T02950143  RH  040%=      5-min Rain = 0
KST3 210217Z 17008KT 29/14 A3006 RMK A01 T02930143  RH  040%=      5-min Rain = 0
KST3 210218Z 17008KT 29/14 A3006 RMK A01 T02930143  RH  040%=      5-min Rain = 0
KST3 210219Z 17007KT 29/14 A3006 RMK A01 T02930143  RH  040%=      5-min Rain = 0
KST3 210220Z 17008KT 29/14 A3006 RMK A01 T02920143  RH  040%=      5-min Rain = 0
KST3 210221Z 17007KT 29/14 A3005 RMK A01 T02920142  RH  040%=      5-min Rain = 0
KST3 210222Z 16008KT 29/14 A3005 RMK A01 T02910142  RH  040%=      5-min Rain = 0
KST3 210223Z 17009KT 29/14 A3005 RMK A01 T02920142  RH  040%=      5-min Rain = 0
KST3 210224Z 16011KT 29/14 A3005 RMK A01 T02920141  RH  040%=      5-min Rain = 0
KST3 210225Z 17010KT 29/14 A3005 RMK A01 T02930141  RH  039%=      5-min Rain = 0
KST3 210226Z 17010KT 29/14 A3005 RMK A01 T02930141  RH  039%=      5-min Rain = 0
KST3 210227Z 17010KT 29/14 A3005 RMK A01 T02930141  RH  039%=      5-min Rain = 0
KST3 210228Z 17009KT 29/14 A3005 RMK A01 T02930141  RH  039%=      5-min Rain = 0
KST3 210229Z 16009KT 29/14 A3005 RMK A01 T02930141  RH  039%=      5-min Rain = 0
KST3 210230Z 17010KT 29/14 A3005 RMK A01 T02930141  RH  039%=      5-min Rain = 0
KST3 210231Z 17011KT 29/14 A3005 RMK A01 T02930140  RH  039%=      5-min Rain = 0
KST3 210232Z 17009KT 29/14 A3005 RMK A01 T02930140  RH  039%=      5-min Rain = 0
KST3 210233Z 17009KT 29/14 A3005 RMK A01 T02930141  RH  039%=      5-min Rain = 0
KST3 210234Z 17007KT 29/14 A3006 RMK A01 T02930140  RH  039%=      5-min Rain = 0
KST3 210235Z 17010KT 29/14 A3006 RMK A01 T02930141  RH  039%=      5-min Rain = 0
KST3 210236Z 17009KT 29/14 A3006 RMK A01 T02930140  RH  039%=      5-min Rain = 0
KST3 210237Z 17010KT 29/14 A3006 RMK A01 T02930140  RH  039%=      5-min Rain = 0
KST3 210238Z 17009KT 29/14 A3006 RMK A01 T02930140  RH  039%=      5-min Rain = 0
KST3 210239Z 17011KT 29/14 A3006 RMK A01 T02920140  RH  039%=      5-min Rain = 0
KST3 210240Z 17009KT 29/14 A3006 RMK A01 T02920139  RH  039%=      5-min Rain = 0
KST3 210241Z 17010KT 29/14 A3006 RMK A01 T02920139  RH  039%=      5-min Rain = 0
KST3 210242Z 17010KT 29/14 A3006 RMK A01 T02920139  RH  039%=      5-min Rain = 0
KST3 210243Z 17011KT 29/14 A3006 RMK A01 T02920139  RH  039%=      5-min Rain = 0
KST3 210244Z 17010KT 29/14 A3006 RMK A01 T02920137  RH  039%=      5-min Rain = 0
KST3 210245Z 16012KT 29/14 A3006 RMK A01 T02920137  RH  039%=      5-min Rain = 0
KST3 210246Z 17011KT 29/14 A3006 RMK A01 T02930136  RH  038%=      5-min Rain = 0
KST3 210247Z 17010KT 29/14 A3006 RMK A01 T02930136  RH  038%=      5-min Rain = 0
KST3 210248Z 17009KT 29/14 A3006 RMK A01 T02930137  RH  038%=      5-min Rain = 0
KST3 210249Z 17010KT 29/14 A3006 RMK A01 T02910136  RH  039%=      5-min Rain = 0
KST3 210250Z 17010KT 29/14 A3006 RMK A01 T02910136  RH  039%=      5-min Rain = 0
KST3 210251Z 17009KT 29/14 A3006 RMK A01 T02910136  RH  039%=      5-min Rain = 0
KST3 210252Z 17009KT 29/14 A3006 RMK A01 T02900136  RH  039%=      5-min Rain = 0
KST3 210253Z 17010KT 29/14 A3006 RMK A01 T02900136  RH  039%=      5-min Rain = 0
KST3 210254Z 17010KT 29/14 A3006 RMK A01 T02890135  RH  039%=      5-min Rain = 0
KST3 210255Z 17011KT 29/14 A3006 RMK A01 T02890135  RH  039%=      5-min Rain = 0
KST3 210256Z 17010KT 29/14 A3006 RMK A01 T02890135  RH  039%=      5-min Rain = 0
KST3 210257Z 17011KT 29/13 A3006 RMK A01 T02890134  RH  039%=      5-min Rain = 0
KST3 210258Z 17011KT 29/13 A3006 RMK A01 T02890134  RH  038%=      5-min Rain = 0
KST3 210259Z 17012KT 29/13 A3006 RMK A01 T02890134  RH  039%=      5-min Rain = 0
KST3 210300Z 17011KT 29/13 A3006 RMK A01 T02890133  RH  038%=      5-min Rain = 0
KST3 210301Z 18010KT 29/13 A3006 RMK A01 T02890133  RH  038%=      5-min Rain = 0
KST3 210302Z 17012KT 29/13 A3006 RMK A01 T02890133  RH  038%=      5-min Rain = 0
KST3 210303Z 17010KT 29/13 A3006 RMK A01 T02890133  RH  038%=      5-min Rain = 0
KST3 210304Z 18011KT 29/13 A3006 RMK A01 T02880132  RH  038%=      5-min Rain = 0
KST3 210305Z 18011KT 29/13 A3006 RMK A01 T02880132  RH  038%=      5-min Rain = 0
KST3 210306Z 18011KT 29/13 A3006 RMK A01 T02880132  RH  038%=      5-min Rain = 0
KST3 210307Z 17012KT 29/13 A3006 RMK A01 T02880132  RH  038%=      5-min Rain = 0
KST3 210308Z 17012KT 29/13 A3006 RMK A01 T02880132  RH  038%=      5-min Rain = 0
KST3 210309Z 17011KT 29/13 A3006 RMK A01 T02880132  RH  038%=      5-min Rain = 0
KST3 210310Z 17011KT 29/13 A3006 RMK A01 T02870132  RH  038%=      5-min Rain = 0
KST3 210311Z 17010KT 29/13 A3006 RMK A01 T02870132  RH  039%=      5-min Rain = 0
KST3 210312Z 17011KT 29/13 A3006 RMK A01 T02860132  RH  039%=      5-min Rain = 0
KST3 210313Z 17011KT 29/13 A3006 RMK A01 T02860131  RH  039%=      5-min Rain = 0
KST3 210314Z 17011KT 29/13 A3006 RMK A01 T02860131  RH  039%=      5-min Rain = 0
KST3 210315Z 17012KT 29/13 A3006 RMK A01 T02860131  RH  039%=      5-min Rain = 0
KST3 210316Z 17012KT 29/13 A3006 RMK A01 T02860131  RH  039%=      5-min Rain = 0
KST3 210317Z 18011KT 29/13 A3006 RMK A01 T02860132  RH  039%=      5-min Rain = 0
KST3 210318Z 18014KT 29/13 A3006 RMK A01 T02860132  RH  039%=      5-min Rain = 0
KST3 210319Z 18012KT 29/13 A3006 RMK A01 T02860132  RH  039%=      5-min Rain = 0
KST3 210320Z 18012KT 29/13 A3006 RMK A01 T02860133  RH  039%=      5-min Rain = 0
KST3 210321Z 18012KT 29/13 A3006 RMK A01 T02860133  RH  039%=      5-min Rain = 0
KST3 210322Z 17011KT 29/13 A3006 RMK A01 T02850133  RH  039%=      5-min Rain = 0
KST3 210323Z 17011KT 29/13 A3006 RMK A01 T02850133  RH  039%=      5-min Rain = 0
KST3 210324Z 17011KT 29/13 A3006 RMK A01 T02850133  RH  039%=      5-min Rain = 0
KST3 210325Z 17010KT 28/13 A3006 RMK A01 T02840133  RH  039%=      5-min Rain = 0
KST3 210326Z 17012KT 29/13 A3006 RMK A01 T02850134  RH  039%=      5-min Rain = 0
KST3 210327Z 17011KT 29/13 A3006 RMK A01 T02850133  RH  039%=      5-min Rain = 0
KST3 210328Z 18011KT 29/13 A3006 RMK A01 T02850134  RH  039%=      5-min Rain = 0
KST3 210329Z 17011KT 29/13 A3006 RMK A01 T02850134  RH  039%=      5-min Rain = 0
KST3 210330Z 17011KT 29/13 A3006 RMK A01 T02850134  RH  040%=      5-min Rain = 0
KST3 210331Z 17011KT 28/13 A3006 RMK A01 T02840134  RH  040%=      5-min Rain = 0
KST3 210332Z 18012KT 28/13 A3006 RMK A01 T02840134  RH  040%=      5-min Rain = 0
KST3 210333Z 18010KT 28/13 A3006 RMK A01 T02840134  RH  040%=      5-min Rain = 0
KST3 210334Z 17011KT 28/13 A3006 RMK A01 T02840134  RH  040%=      5-min Rain = 0
KST3 210335Z 18011KT 28/14 A3006 RMK A01 T02840135  RH  040%=      5-min Rain = 0
KST3 210336Z 17010KT 28/13 A3006 RMK A01 T02840134  RH  040%=      5-min Rain = 0
KST3 210337Z 18011KT 28/13 A3006 RMK A01 T02840134  RH  040%=      5-min Rain = 0
KST3 210338Z 17011KT 28/13 A3006 RMK A01 T02830134  RH  040%=      5-min Rain = 0
KST3 210339Z 17011KT 28/13 A3006 RMK A01 T02830134  RH  040%=      5-min Rain = 0
KST3 210340Z 17011KT 28/13 A3006 RMK A01 T02840134  RH  040%=      5-min Rain = 0
KST3 210341Z 18011KT 28/13 A3006 RMK A01 T02840134  RH  040%=      5-min Rain = 0
KST3 210342Z 18010KT 29/13 A3006 RMK A01 T02850134  RH  040%=      5-min Rain = 0
KST3 210343Z 18010KT 28/13 A3006 RMK A01 T02840134  RH  040%=      5-min Rain = 0
KST3 210344Z 18011KT 28/14 A3006 RMK A01 T02840135  RH  040%=      5-min Rain = 0
KST3 210345Z 18010KT 28/13 A3006 RMK A01 T02840134  RH  040%=      5-min Rain = 0
KST3 210346Z 18010KT 28/14 A3007 RMK A01 T02840135  RH  040%=      5-min Rain = 0
KST3 210347Z 18012KT 28/14 A3007 RMK A01 T02830135  RH  040%=      5-min Rain = 0
KST3 210348Z 18010KT 28/14 A3007 RMK A01 T02830135  RH  040%=      5-min Rain = 0
KST3 210349Z 18010KT 28/14 A3007 RMK A01 T02840135  RH  040%=      5-min Rain = 0
KST3 210350Z 18011KT 28/14 A3007 RMK A01 T02830135  RH  040%=      5-min Rain = 0
KST3 210351Z 18011KT 28/14 A3007 RMK A01 T02840135  RH  040%=      5-min Rain = 0
KST3 210352Z 18010KT 28/14 A3007 RMK A01 T02840135  RH  040%=      5-min Rain = 0
KST3 210353Z 18010KT 28/14 A3007 RMK A01 T02840135  RH  040%=      5-min Rain = 0
KST3 210354Z 17010KT 28/14 A3007 RMK A01 T02840136  RH  040%=      5-min Rain = 0
KST3 210355Z 18011KT 28/14 A3007 RMK A01 T02840136  RH  040%=      5-min Rain = 0
KST3 210356Z 18010KT 28/14 A3007 RMK A01 T02840136  RH  040%=      5-min Rain = 0
KST3 210357Z 18011KT 29/14 A3007 RMK A01 T02850136  RH  040%=      5-min Rain = 0
KST3 210358Z 18010KT 29/14 A3007 RMK A01 T02850136  RH  040%=      5-min Rain = 0
KST3 210359Z 18010KT 29/14 A3007 RMK A01 T02860137  RH  040%=      5-min Rain = 0
KST3 210400Z 18010KT 29/14 A3007 RMK A01 T02850137  RH  040%=      5-min Rain = 0
KST3 210401Z 18011KT 29/14 A3007 RMK A01 T02850137  RH  040%=      5-min Rain = 0
KST3 210402Z 18012KT 29/14 A3007 RMK A01 T02850137  RH  040%=      5-min Rain = 0
KST3 210403Z 18011KT 29/14 A3007 RMK A01 T02850137  RH  040%=      5-min Rain = 0
KST3 210404Z 18010KT 29/14 A3007 RMK A01 T02860138  RH  040%=      5-min Rain = 0
KST3 210405Z 18011KT 29/14 A3007 RMK A01 T02860138  RH  040%=      5-min Rain = 0
KST3 210406Z 18011KT 29/14 A3007 RMK A01 T02860139  RH  040%=      5-min Rain = 0
KST3 210407Z 19011KT 29/14 A3008 RMK A01 T02860139  RH  040%=      5-min Rain = 0
KST3 210408Z 18011KT 29/14 A3008 RMK A01 T02850139  RH  041%=      5-min Rain = 0
KST3 210409Z 18010KT 29/14 A3008 RMK A01 T02860139  RH  041%=      5-min Rain = 0
KST3 210410Z 19011KT 29/14 A3008 RMK A01 T02860139  RH  041%=      5-min Rain = 0
KST3 210411Z 19010KT 29/14 A3008 RMK A01 T02860139  RH  041%=      5-min Rain = 0
KST3 210412Z 19009KT 29/14 A3008 RMK A01 T02860139  RH  041%=      5-min Rain = 0
KST3 210413Z 20008KT 29/14 A3009 RMK A01 T02860140  RH  041%=      5-min Rain = 0
KST3 210414Z 22009KT 28/14 A3009 RMK A01 T02840141  RH  041%=      5-min Rain = 0
KST3 210415Z 24011KT 28/14 A3009 RMK A01 T02800141  RH  042%=      5-min Rain = 0
KST3 210416Z 25012KT 28/14 A301 RMK A01 T02770141  RH  043%=      5-min Rain = 0
KST3 210417Z 26012KT 27/14 A301 RMK A01 T02740139  RH  043%=      5-min Rain = 0
KST3 210418Z 25011KT 27/14 A301 RMK A01 T02730137  RH  043%=      5-min Rain = 0
KST3 210419Z 24011KT 27/14 A301 RMK A01 T02730135  RH  043%=      5-min Rain = 0
KST3 210420Z 25009KT 27/14 A3009 RMK A01 T02740135  RH  042%=      5-min Rain = 0
KST3 210421Z 26009KT 27/14 A3009 RMK A01 T02740135  RH  042%=      5-min Rain = 0
KST3 210422Z 25010KT 27/14 A3009 RMK A01 T02740135  RH  043%=      5-min Rain = 0
KST3 210423Z 23009KT 27/14 A3009 RMK A01 T02730135  RH  043%=      5-min Rain = 0
KST3 210424Z 21009KT 27/14 A3009 RMK A01 T02740135  RH  042%=      5-min Rain = 0
KST3 210425Z 19008KT 28/14 A3009 RMK A01 T02750135  RH  042%=      5-min Rain = 0
KST3 210426Z 19009KT 28/14 A3009 RMK A01 T02760135  RH  042%=      5-min Rain = 0
KST3 210427Z 19008KT 28/14 A3009 RMK A01 T02780135  RH  041%=      5-min Rain = 0
KST3 210428Z 20009KT 28/14 A3009 RMK A01 T02780135  RH  041%=      5-min Rain = 0
KST3 210429Z 20009KT 28/14 A3009 RMK A01 T02790135  RH  041%=      5-min Rain = 0
KST3 210430Z 20010KT 28/14 A3009 RMK A01 T02800136  RH  041%=      5-min Rain = 0
KST3 210431Z 20010KT 28/14 A3009 RMK A01 T02810136  RH  041%=      5-min Rain = 0
KST3 210432Z 20008KT 28/14 A3009 RMK A01 T02820136  RH  041%=      5-min Rain = 0
KST3 210433Z 20009KT 28/14 A3009 RMK A01 T02820136  RH  041%=      5-min Rain = 0
KST3 210434Z 20008KT 28/14 A3009 RMK A01 T02800136  RH  041%=      5-min Rain = 0
KST3 210435Z 20011KT 28/14 A3009 RMK A01 T02790136  RH  041%=      5-min Rain = 0
KST3 210436Z 20008KT 28/14 A3009 RMK A01 T02810137  RH  041%=      5-min Rain = 0
KST3 210437Z 21009KT 28/14 A3009 RMK A01 T02820137  RH  041%=      5-min Rain = 0
KST3 210438Z 22009KT 28/14 A3009 RMK A01 T02820137  RH  041%=      5-min Rain = 0
KST3 210439Z 21011KT 28/14 A3009 RMK A01 T02830137  RH  041%=      5-min Rain = 0
KST3 210440Z 22010KT 28/14 A3009 RMK A01 T02830137  RH  041%=      5-min Rain = 0
KST3 210441Z 22009KT 28/14 A301 RMK A01 T02830138  RH  041%=      5-min Rain = 0
KST3 210442Z 22009KT 28/14 A301 RMK A01 T02820137  RH  041%=      5-min Rain = 0
KST3 210443Z 22009KT 28/14 A301 RMK A01 T02810138  RH  041%=      5-min Rain = 0
KST3 210444Z 23009KT 28/14 A301 RMK A01 T02800138  RH  042%=      5-min Rain = 0
KST3 210445Z 23009KT 28/14 A301 RMK A01 T02790138  RH  042%=      5-min Rain = 0
KST3 210446Z 23009KT 28/14 A301 RMK A01 T02780138  RH  042%=      5-min Rain = 0
KST3 210447Z 23009KT 28/14 A301 RMK A01 T02780139  RH  042%=      5-min Rain = 0
KST3 210448Z 23009KT 28/14 A301 RMK A01 T02790139  RH  042%=      5-min Rain = 0
KST3 210449Z 23009KT 28/14 A301 RMK A01 T02790139  RH  042%=      5-min Rain = 0
KST3 210450Z 23008KT 28/14 A301 RMK A01 T02790139  RH  042%=      5-min Rain = 0
KST3 210451Z 23008KT 28/14 A301 RMK A01 T02790139  RH  042%=      5-min Rain = 0
KST3 210452Z 22008KT 28/14 A301 RMK A01 T02790139  RH  042%=      5-min Rain = 0
KST3 210453Z 22008KT 28/14 A3009 RMK A01 T02790139  RH  042%=      5-min Rain = 0
KST3 210454Z 21007KT 28/14 A3009 RMK A01 T02780139  RH  042%=      5-min Rain = 0
KST3 210455Z 21007KT 28/14 A3009 RMK A01 T02780139  RH  042%=      5-min Rain = 0
KST3 210456Z 20007KT 28/14 A3009 RMK A01 T02770138  RH  043%=      5-min Rain = 0
KST3 210457Z 20007KT 28/14 A3009 RMK A01 T02770139  RH  043%=      5-min Rain = 0
KST3 210458Z 20007KT 28/14 A3009 RMK A01 T02760139  RH  043%=      5-min Rain = 0
KST3 210459Z 20007KT 28/14 A3009 RMK A01 T02750139  RH  043%=      5-min Rain = 0

Page generated in 0.0729 seconds.